     2              OBSERVATION DATA    GPS                 RINEX VERSION / TYPE
teqc 2000Feb29 20021016 17:31:09UTC                         PGM / RUN BY / DATE
                                                            COMMENT
L2: 1 -> 1; 5 -> 5; 60 -> 9                                 COMMENT
L2: 1 -> 1; 5 -> 5; 60 -> 9                                 COMMENT
L2: 1 -> 1; 5 -> 5; 60 -> 9                                 COMMENT
L2: 1 -> 1; 5 -> 5; 60 -> 9                                 COMMENT
L2: 1 -> 1; 5 -> 5; 60 -> 9                                 COMMENT
Original Marker Name: 3924189                               COMMENT
Campaign Name: Yolo County Subsidence 2002                  COMMENT
4-Character Station Name: X200                              COMMENT
6-Character Antenna Code: TRMCMP                            COMMENT
Vertical Measurement Point: BPA                             COMMENT
Vertical Offset to Rinex Ref. Point: 0.0000                 COMMENT
Radial Measurement Point: RRP                               COMMENT
Radial Offset to Rinex Ref. Point: 0.0000                   COMMENT
Antenna Height from Field Measurement: 2.0000 m             COMMENT
Additional Antenna Identification Info.:                    COMMENT
Model 22020.00+GP                                           COMMENT
Original XYZ: -2632418.0963 -4215484.1260 3984184.2749      COMMENT
New XYZ position is based on association with SCEC monument COMMENT
E1O4H8A2+0011. Position of that monument is believed to be  COMMENT
valid to within 1 m horizontally; vertical accuracy         COMMENT
should be no worse than 3-times this value.                 COMMENT
                                                            COMMENT
Revised Rinex header created by UCSD GPS archive for        COMMENT
GSAC on 17-Jul-2003 (2003:198) 21:16:41 GMT                 COMMENT
For assistance contact dagnew@ucsd.edu                      COMMENT
or anderson@python.ucsd.edu                                 COMMENT
                                                            COMMENT
X200 RESET                                                  MARKER NAME
3924                                                        MARKER NUMBER
-Unknown- YOLO_COUNTY                                       OBSERVER / AGENCY
220223924 TRIMBLE 4700 NP 1.30; SP 1.43                     REC # / TYPE / VERS
0220063966 TR GEOD L1/L2 GP                                 ANT # / TYPE
 -2632418.2689 -4215485.3969  3984180.8181                  APPROX POSITION XYZ
        2.0000        0.0000        0.0000                  ANTENNA: DELTA H/E/N
     1     1     0                                          WAVELENGTH FACT L1/2
     7    C1    L1    L2    P1    P2    S1    S2            # / TYPES OF OBSERV
     0                                                      INTERVAL
  2002     7     8    16    46    0.000000                  TIME OF FIRST OBS
  2002     7     8    17    30   15.000000                  TIME OF LAST OBS
                                                            END OF HEADER
 02  7  8 16 46  0.0000000  0  8G29G 6G15G17G18G22G23G26
  23077759.4304      10639.03859      -856.52257                  23077759.5554
        45.7504         36.7504
  21623020.7974      56093.80459     23475.75958                  21623021.4694
        49.5004         43.0004
  20556177.5554     -16281.45559    -12353.89658                  20556176.7234
        50.5004         46.0004
  20616499.0634      -3291.90559     -5905.39658                  20616498.6564
        51.0004         44.7504
  20704475.7894     -30903.76859    -19567.28058                  20704474.0704
        51.0004         45.7504
  23310064.3594      24334.41159      7598.60357                  23310065.3484
        43.2504         34.7504
  22323915.9304      54463.15959     22647.68858                  22323915.5904
        49.5004         43.0004
  22225416.0394      11103.96259      1555.48157                  22225417.2074
        46.7504         39.2504
 02  7  8 16 46 15.0000000  0  9G29G 6G15G17G18G21G22G23G26
  23080649.8054      25827.26249     10978.47847                  23080649.7234
        43.7504         36.5004
  21630040.9774      92986.85349     52223.59748                  21630041.6414
        50.0004         43.0004
  20554202.9454     -26657.65849    -20439.21948                  20554202.4574
        49.5004         45.2504
  20616126.7274      -5250.41249     -7431.47048                  20616125.8364
        51.5004         44.2504
  20700675.6024     -50872.21949    -35127.07348                  20700674.4104
        51.0004         45.0004
  22866274.1484     -95597.87259    -63879.18357                  22866276.1724
        45.7504         38.0004
  23313061.6954      40083.26349     19870.44347                  23313061.9414
        41.2504         34.2504
  22330722.1334      90232.67749     50520.07348                  22330722.4734
        48.5004         42.0004
  22226917.1024      18990.86049      7701.16347                  22226917.6254
        46.5004         39.2504
 02  7  8 16 46 30.0000000  0  9G29G 6G15G17G18G21G22G23G26
  23083595.0554      41304.32749     23038.52447                  23083595.7274
        45.0004         36.0004
  21637109.7584     130133.62049     81169.10948                  21637110.7734
        48.7504         43.0004
  20552270.5394     -36812.35449    -28351.93548                  20552269.6374
        50.2504         44.7504
  20615794.7664      -6994.90649     -8790.80448                  20615794.1684
        51.5004         43.7504
  20696927.4774     -70569.69549    -50475.72248                  20696926.3554
        50.5004         45.2504
  22859144.1954    -133067.30249    -93076.08647                  22859145.5164
        45.5004         38.2504
  23316110.9304      56108.10249     32357.32947                  23316111.3754
        43.2504         33.7504
  22337568.9534     126211.73849     78555.71048                  22337569.1764
        49.0004         42.0004
  22228478.7034      27196.22249     14094.96348                  22228479.1994
        47.0004         39.5004
 02  7  8 16 46 45.0000000  0  9G29G 6G15G17G18G21G22G23G26
  23086603.0864      57111.27949     35355.63047                  23086603.2774
        46.7504         35.7504
  21644234.7424     167575.13149    110344.29748                  21644235.1844
        49.5004         43.0004
  20550388.6254     -46704.23849    -36059.89348                  20550387.6804
        51.2504         45.0004
  20615511.1954      -8484.31449     -9951.38548                  20615510.7504
        50.2504         44.5004
  20693238.4924     -89954.88849    -65581.04948                  20693236.8204
        50.5004         44.7504
  22852064.1254    -170272.85749   -122067.37347                  22852065.8754
        46.5004         38.0004
  23319220.7274      72449.92649     45091.21047                  23319221.3484
        44.2504         34.5004
  22344463.1564     162441.32649    106786.55748                  22344463.8284
        49.2504         42.2504
  22230108.3204      35761.21949     20769.01047                  22230109.1454
        48.5004         39.2504
 02  7  8 16 47  0.0000000  0  9G29G 6G15G17G18G21G22G23G26
  23089680.0944      73283.93149     47957.70247                  23089680.4384
        47.7504         35.5004
  21651422.7114     205347.31149    139777.14148                  21651423.3554
        50.0004         42.7504
  20548562.6644     -56297.31149    -43535.00448                  20548562.3244
        50.5004         45.0004
  20615283.3444      -9682.47149    -10885.00848                  20615282.6174
        50.7504         43.7504
  20689615.7664    -108991.78649    -80414.97548                  20689614.4574
        50.2504         44.5004
  22845041.5944    -207178.31449   -150824.83247                  22845042.8874
        46.0004         38.0004
  23322397.2034      89144.55149     58099.98947                  23322398.3594
        46.7504         34.2504
  22351412.2114     198957.22349    135240.50248                  22351411.9964
        48.5004         42.0004
  22231813.9224      44721.78049     27751.27747                  22231814.5084
        47.5004         39.2504
 02  7  8 16 47 15.0000000  0  9G29G 6G15G17G18G21G22G23G26
  23092831.1644      89843.21049     60861.04647                  23092831.3834
        48.0004         36.0004
  21658677.3444     243470.84149    169483.76848                  21658677.8754
        49.5004         42.0004
  20546798.0944     -65570.51749    -50760.87248                  20546797.6414
        50.5004         45.0004
  20615114.8284     -10568.42149    -11575.36548                  20615114.0354
        50.7504         44.0004
  20686063.5314    -127659.46549    -94961.20548                  20686062.3594
        50.7504         44.5004
  22838079.4694    -243762.58149   -179332.00247                  22838080.7584
        47.0004         38.5004
  23325645.3914     106212.64349     71399.77747                  23325646.5004
        47.0004         34.5004
  22358419.3054     235779.98949    163933.56448                  22358418.9694
        48.0004         41.2504
  22233597.7664      54098.76949     35058.03947                  22233598.4774
        48.2504         38.5004
 02  7  8 16 47 30.0000000  0  9G29G 6G15G17G18G21G22G23G26
  23096059.3054     106805.58149     74078.48047                  23096059.2114
        48.2504         36.2504
  21666001.9844     281962.19549    199477.00348                  21666002.5824
        49.7504         42.2504
  20545097.7504     -74507.09249    -57724.42648                  20545097.4264
        50.5004         45.0004
  20615008.9064     -11125.42749    -12009.38948                  20615008.2734
        51.7504         44.0004
  20682584.7114    -145941.26149   -109206.74048                  20682583.3324
        50.5004         44.5004
  22831182.3754    -280008.66549   -207575.65347                  22831183.2854
        46.5004         37.5004
  23328967.8834     123670.61349     85003.37547                  23328968.1054
        46.7504         34.5004
  22365487.8594     272926.13949    192878.61748                  22365487.5664
        48.5004         41.5004
  22235464.8674      63908.90949     42702.31147                  22235465.3524
        48.2504         38.5004
 02  7  8 16 47 45.0000000  0  9G29G 6G15G17G18G21G22G23G26
  23099364.9694     124176.68849     87614.39247                  23099365.1484
        47.2504         35.7504
  21673397.7114     320826.77749    229761.04948                  21673398.5864
        50.0004         42.2504
  20543462.2274     -83101.48249    -64421.35348                  20543461.2344
        49.7504         44.7504
  20614966.6414     -11347.83349    -12182.69348                  20614965.8834
        51.5004         44.0004
  20679180.2504    -163831.54449   -123147.20548                  20679178.9494
        50.0004         44.5004
  22824350.1334    -315911.35949   -235551.74147                  22824351.6644
        47.5004         38.0004
  23332365.2194     141523.78949     98914.90247                  23332365.4574
        47.2504         34.7504
  22372619.5704     310400.93049    222079.73548                  22372619.1294
        48.5004         41.5004
  22237415.2814      74157.65349     50688.34547                  22237415.5664
        49.0004         39.0004
 02  7  8 16 48  0.0000000  0  9G29G 6G15G17G18G21G22G23G26
  23102747.7584     141952.95049    101466.03847                  23102748.2774
        47.5004         36.0004
  21680863.9844     360061.15549    260333.28048                  21680864.6644
        50.2504         42.0004
  20541891.2664     -91356.98649    -70854.20448                  20541890.3554
        50.2504         45.0004
  20614987.1414     -11238.96349    -12097.84548                  20614986.9654
        51.0004         44.5004
  20675849.6884    -181333.63749   -136785.18948                  20675848.7974
        50.5004         44.5004
  22817582.8364    -351473.78149   -263262.67447                  22817584.2814
        46.7504         38.0004
  23335836.8834     159768.69949    113131.69747                  23335838.0474
        47.0004         34.7504
  22379812.5784     348200.84649    251534.21448                  22379812.5704
        49.0004         41.0004
  22239448.0944      84841.60849     59013.53047                  22239448.7974
        49.0004         38.5004
 02  7  8 16 48 15.0000000  0  9G29G 6G15G17G18G21G22G23G26
  23106206.2034     160128.87949    115629.08347                  23106206.5474
        47.5004         35.5004
  21688399.2194     399659.67249    291189.24448                  21688399.9104
        50.7504         42.2504
  20540383.6414     -99278.92949    -77027.14748                  20540383.0554
        50.7504         45.0004
  20615070.0554     -10804.19949    -11759.07348                  20615069.4064
        51.5004         44.2504
  20672592.1884    -198452.90449   -150124.87048                  20672591.0474
        50.2504         44.7504
  22810878.9614    -386701.14049   -290712.52347                  22810880.5864
        47.7504         38.2504
  23339382.6334     178399.53049    127649.21147                  23339383.5514
        47.0004         34.5004
  22387066.1094     386320.23449    281237.62248                  22387066.1884
        49.0004         41.0004
  22241562.7734      95955.35249     67673.60647                  22241563.6374
        49.5004         39.0004
 02  7  8 16 48 30.0000000  0  9G29G 6G15G17G18G21G22G23G26
  23109741.2584     178703.62249    130102.90647                  23109741.2274
        48.0004         35.5004
  21696003.8364     439621.46649    322328.26248                  21696004.4344
        50.5004         42.5004
  20538939.6094    -106867.99849    -82940.71048                  20538938.5314
        50.0004         45.0004
  20615214.6804     -10044.16349    -11166.83748                  20615214.1094
        51.0004         43.7504
  20669407.2664    -215189.93649   -163166.70448                  20669406.2624
        50.5004         44.5004
  22804239.5704    -421594.14949   -317901.84047                  22804240.9654
        48.0004         38.5004
  23343000.9774     197415.48149    142466.81147                  23343001.8014
        47.0004         34.0004
  22394380.6254     424758.07749    311189.17548                  22394380.8364
        48.2504         40.7504
  22243760.1724     107498.07449     76667.93447                  22243760.2234
        48.7504         39.0004
 02  7  8 16 48 45.0000000  0  9G29G 6G15G17G18G21G22G23G26
  23113349.5474     197666.05749    144878.83947                  23113349.5744
        48.2504         35.5004
  21703674.7974     479935.30549    353741.62248                  21703676.0124
        50.5004         42.5004
  20537556.6564    -114135.20249    -88603.45348                  20537555.8484
        51.0004         45.2504
  20615419.0784      -8969.81449    -10329.68648                  20615418.5634
        50.7504         44.0004
  20666293.0944    -231555.75949   -175919.28448                  20666291.6214
        50.7504         45.2504
  22797660.8754    -456163.63449   -344839.05747                  22797662.4304
        48.2504         38.2504
  23346690.6804     216805.22349    157575.67647                  23346691.8954
        46.5004         34.0004
  22401753.5394     463503.11949    341380.11148                  22401753.3874
        48.5004         41.0004
  22246035.7974     119458.73649     85987.93947                  22246035.8874
        49.0004         39.0004
 02  7  8 16 49  0.0000000  0  9G29G 6G15G17G18G21G22G23G26
  23117030.0474     217007.60749    159950.16747                  23117029.9964
        48.2504         35.2504
  21711412.1724     520592.69149    385422.66348                  21711412.7034
        50.5004         42.5004
  20536233.2974    -121088.78549    -94021.84648                  20536232.5274
        51.5004         45.2504
  20615682.1094      -7589.58649     -9254.19848                  20615681.1374
        51.2504         44.0004
  20663247.5864    -247558.72849   -188389.12448                  20663246.3094
        50.7504         45.5004
  22791142.2584    -490417.75949   -371530.55247                  22791143.6914
        47.7504         38.0004
  23350449.7734     236560.16849    172969.09947                  23350450.7304
        46.5004         34.5004
  22409183.4454     502546.59549    371803.58348                  22409183.4694
        49.5004         40.5004
  22248389.8754     131828.89549     95627.03248                  22248389.7194
        49.2504         39.5004
 02  7  8 16 49 15.0000000  0  9G29G 6G15G17G18G21G22G23G26
  23120780.1804     236712.96749    175304.99647                  23120780.1174
        48.0004         35.0004
  21719211.5164     561578.16149    417359.37448                  21719212.1054
        49.7504         42.5004
  20534966.8204    -127744.07449    -99207.79348                  20534966.4184
        51.0004         44.7504
  20615999.5004      -5918.62849     -7952.16848                  20615998.6054
        51.0004         43.7504
  20660268.9064    -263214.18049   -200588.17648                  20660266.6844
        51.0004         45.0004
  22784681.5784    -524371.94849   -397988.31547                  22784682.5514
        48.5004         38.2504
  23354275.5864     256664.65149    188634.89847                  23354277.0664
        46.0004         34.2504
  22416666.7344     541873.11849    402447.62548                  22416667.3014
        48.2504         41.0004
  22250818.4774     144593.16549    105573.23247                  22250819.0004
        49.2504         38.7504
 02  7  8 16 49 30.0000000  0  9G29G 6G15G17G18G21G22G23G26
  23124596.7734     256771.03549    190934.66247                  23124596.6024
        47.7504         35.0004
  21727071.3444     602880.53349    449543.01148                  21727071.5864
        50.7504         42.0004
  20533755.1884    -134111.98049   -104169.78148                  20533754.8914
        50.7504         44.5004
  20616370.7894      -3967.95849     -6432.14648                  20616370.4224
        51.5004         43.7504
  20657353.4844    -278533.20749   -212525.06548                  20657351.7384
        50.5004         44.7504
  22778274.7894    -558037.05849   -424220.82947                  22778276.1994
        48.2504         38.0004
  23358166.2894     277107.56649    204564.40947                  23358166.8984
        46.2504         34.2504
  22424202.3674     581471.40649    433303.42648                  22424202.4924
        48.2504         40.5004
  22253320.9384     157740.52749    115817.93647                  22253320.6174
        49.0004         39.2504
 02  7  8 16 49 45.0000000  0  9G29G 6G15G17G18G21G22G23G26
  23128479.6644     277175.57949    206834.30147                  23128479.6294
        47.7504         35.0004
  21734989.6804     644493.57349    481968.72048                  21734989.8984
        49.2504         42.0004
  20532596.7664    -140198.40449   -108912.44748                  20532596.2624
        49.7504         44.7504
  20616794.1644      -1743.49649     -4698.80348                  20616793.4184
        50.5004         44.0004
  20654501.0634    -293521.59849   -224204.33748                  20654499.5824
        50.0004         44.7504
  22771922.6174    -591418.72449   -450232.49747                  22771924.1134
        48.7504         38.0004
  23362119.2034     297882.60249    220752.71747                  23362120.4884
        46.5004         34.5004
  22431788.2584     621335.27849    464366.16548                  22431788.2814
        47.2504         40.7504
  22255894.1724     171264.87649    126356.38548                  22255895.1454
        48.7504         39.5004
 02  7  8 16 50  0.0000000  0  9G29G 6G15G17G18G21G22G23G26
  23132426.4144     297916.70149    222996.21447                  23132426.2704
        48.2504         36.0004
  21742966.0314     686407.21149    514628.68148                  21742966.4454
        50.5004         41.7504
  20531490.2034    -146013.28349   -113443.51648                  20531489.9384
        50.2504         45.0004
  20617268.0084        744.98049     -2759.72948                  20617267.3914
        50.5004         43.7504
  20651710.4224    -308189.26449   -235633.66448                  20651708.4534
        50.5004         44.7504
  22765621.9304    -624527.06949   -476031.16447                  22765623.2504
        48.5004         38.0004
  23366134.0474     318979.75949    237192.02447                  23366134.5784
        46.5004         34.2504
  22439422.7344     661454.65049    495628.00548                  22439422.6254
        47.5004         40.5004
  22258537.7734     185156.28749    137180.87647                  22258538.2624
        49.0004         38.7504
 02  7  8 16 50 15.0000000  0  9G29G 6G15G17G18G21G22G23G26
  23136435.2194     318980.86049    239409.84847                  23136435.1454
        48.2504         36.0004
  21750996.4304     728608.03549    547512.41248                  21750996.6994
        50.5004         42.2504
  20530433.1174    -151569.83849   -117773.29548                  20530432.7504
        49.2504         44.7504
  20617789.1804       3484.27049      -625.21448                  20617788.2114
        50.7504         44.0004
  20648977.3914    -322549.52249   -246823.47048                  20648976.3794
        49.7504         45.0004
  22759371.2974    -657375.37449   -501627.22147                  22759372.6804
        48.0004         38.0004
  23370207.3984     340385.34249    253871.67047                  23370208.1724
        45.5004         34.2504
  22447103.0084     701815.94949    527078.33948                  22447103.3324
        47.0004         40.7504
  22261248.6174     199401.41049    148280.97347                  22261248.8524
        49.2504         39.0004
 02  7  8 16 50 30.0000000  0  9G29G 6G15G17G18G21G22G23G26
  23140503.0784     340359.44849    256068.48247                  23140503.5164
        48.2504         36.0004
  21759080.1334     771087.30749    580613.09948                  21759080.5004
        50.2504         42.0004
  20529423.4144    -156876.49749   -121908.35648                  20529422.7114
        50.5004         45.0004
  20618356.5394       6465.69249      1697.97048                  20618355.6134
        50.7504         44.0004
  20646301.7734    -336610.89049   -257780.36448                  20646300.1414
        50.2504         44.5004
  22753168.1724    -689972.02349   -527027.16747                  22753169.7274
        47.5004         38.2504
  23374338.1484     362090.71049    270784.90247                  23374338.6334
        46.7504         34.0004
  22454827.9384     742410.31349    558710.29848                  22454827.9884
        48.2504         40.7504
  22264025.1644     213991.62649    159649.97448                  22264025.1804
        48.5004         39.7504
 02  7  8 16 50 45.0000000  0  9G29G 6G15G17G18G21G22G23G26
  23144629.5554     362042.25249    272964.17147                  23144629.3954
        47.5004         36.2504
  21767214.5554     813834.57449    613922.64048                  21767215.5124
        50.2504         42.0004
  20528458.8674    -161943.49249   -125856.66148                  20528458.2234
        50.0004         45.0004
  20618967.9224       9679.19449      4201.98748                  20618967.1954
        50.7504         43.5004
  20643680.8914    -350383.60449   -268512.34148                  20643679.3914
        50.0004         44.5004
  22747011.3674    -722327.10149   -552238.88447                  22747012.9574
        47.7504         39.0004
  23378523.1724     384085.30349    287923.52447                  23378523.9264
        47.0004         33.5004
  22462595.6644     783227.28449    590515.72748                  22462595.3984
        48.0004         40.5004
  22266865.1644     228916.62849    171279.85847                  22266865.7624
        48.2504         39.0004
 02  7  8 16 51  0.0000000  0  9G29G 6G15G17G18G21G22G23G26
  23148811.6484     384020.09749    290089.75847                  23148811.8554
        48.0004         35.5004
  21775398.2894     856840.82849    647433.98348                  21775398.9804
        49.7504         42.0004
  20527538.8444    -166779.63649   -129625.08548                  20527537.9694
        50.2504         44.5004
  20619622.0394      13115.91549      6879.95548                  20619621.2154
        51.2504         43.7504
  20641113.3054    -363876.38349   -279026.18848                  20641111.7704
        49.5004         45.0004
  22740898.8364    -754449.22749   -577269.08747                  22740899.7304
        47.7504         39.0004
  23382762.3134     406360.03849    305280.43747                  23382762.5824
        46.5004         33.0004
  22470403.1644     824257.69649    622487.45748                  22470402.9534
        48.5004         40.5004
  22269766.7894     244167.52649    183163.67847                  22269767.5634
        48.2504         39.2504
 02  7  8 16 51 15.0000000  0  9G29G 6G15G17G18G21G22G23G26
  23153049.1484     406287.45849    307440.94747                  23153048.9304
        48.0004         34.7504
  21783630.3914     900100.48949    681142.77248                  21783630.9734
        50.5004         41.7504
  20526661.3524    -171390.27849   -133217.78448                  20526660.7544
        50.0004         44.5004
  20620317.3524      16770.52149      9727.68848                  20620316.4614
        50.7504         43.7504
  20638597.8984    -377094.65249   -289326.13748                  20638596.5594
        50.0004         44.7504
  22734829.1254    -786343.74649   -602121.93047                  22734830.7974
        47.7504         39.0004
  23387053.0004     428909.20149    322851.19447                  23387053.8954
        45.5004         33.2504
  22478250.6804     865495.93249    654621.13648                  22478251.0634
        48.2504         41.0004
  22272730.0234     259738.82549    195297.17047                  22272730.6954
        47.7504         38.7504
 02  7  8 16 51 30.0000000  0  9G29G 6G15G17G18G21G22G23G26
  23157339.7274     428835.16549    325010.58847                  23157339.4494
        47.5004         34.7504
  21791908.8204     943604.25849    715041.78548                  21791909.7424
        50.0004         41.7504
  20525825.1484    -175784.35749   -136641.73548                  20525824.4414
        50.7504         44.7504
  20621052.4064      20633.97149     12738.17148                  20621051.8834
        51.5004         44.5004
  20636133.0164    -390047.53849   -299419.28848                  20636131.4264
        50.0004         44.7504
  22728801.5004    -818019.58249   -626804.35747                  22728802.5634
        47.5004         39.0004
  23391394.6414     451723.53349    340628.56547                  23391394.8524
        45.5004         31.7504
  22486135.8524     906932.73349    686909.54748                  22486135.7934
        48.0004         40.0004
  22275752.4694     275621.28349    207673.10747                  22275752.9414
        47.7504         38.5004
 02  7  8 16 51 45.0000000  0  9G29G 6G15G17G18G21G22G23G26
  23161682.2814     451657.34849    342794.09047                  23161682.7274
        47.0004         34.7504
  21800232.7584     987346.15849    749126.35548                  21800233.2424
        49.2504         41.7504
  20525029.0314    -179967.65649   -139901.45748                  20525027.9694
        50.0004         44.2504
  20621826.5704      24700.50749     15906.89748                  20621825.4534
        51.0004         44.2504
  20633717.6884    -402740.85349   -309310.17548                  20633715.9574
        50.5004         45.0004
  22722814.5864    -849482.43549   -651320.83947                  22722815.7774
        47.7504         38.0004
  23395784.7814     474797.02549    358607.88047                  23395785.7624
        45.5004         33.0004
  22494057.7504     948562.04549    719347.95448                  22494057.6994
        46.7504         40.2504
  22278833.1804     291809.14649    220287.04047                  22278833.6214
        48.0004         38.5004
 02  7  8 16 52  0.0000000  0  9G29G 6G15G17G18G21G22G23G26
  23166077.4304     474751.81649    360789.77147                  23166077.5864
        46.7504         35.5004
  21808601.4064    1031323.96449    783394.74048                  21808601.9844
        49.5004         41.7504
  20524272.8134    -183942.13649   -142998.44948                  20524272.1054
        50.2504         44.7504
  20622638.4454      28968.14649     19232.33748                  20622637.9574
        51.0004         43.7504
  20631351.0164    -415176.57449   -319000.34548                  20631349.6214
        49.7504         44.5004
  22716867.5784    -880734.43749   -675673.01547                  22716868.8204
        47.5004         38.0004
  23400224.7664     498127.23949    376787.25147                  23400225.9304
        45.2504         33.2504
  22502015.6024     990381.57049    751934.59448                  22502015.4694
        48.5004         40.0004
  22281971.0084     308300.28149    233137.27647                  22281971.5704
        47.7504         38.7504
 02  7  8 16 52 15.0000000  0  9G29G 6G15G17G18G21G22G23G26
  23170521.3754     498105.75649    378987.63847                  23170521.6564
        47.0004         34.2504
  21817012.6884    1075524.82149    817836.93248                  21817012.9414
        48.7504         41.5004
  20523553.9694    -187720.46949   -145942.60348                  20523552.7734
        49.7504         44.5004
  20623486.6954      33424.39649     22704.74148                  20623485.8834
        50.7504         44.0004
  20629031.2034    -427367.30949   -328499.61148                  20629029.7194
        49.5004         44.0004
  22710958.0314    -911788.13849   -699870.67447                  22710959.4304
        47.2504         38.2504
  23404710.3284     521701.38249    395156.68147                  23404712.1644
        45.2504         33.0004
  22510007.3284    1032378.44449    784659.41248                  22510007.3594
        48.0004         40.0004
  22285164.4454     325081.93649    246213.90547                  22285164.8914
        47.7504         38.5004
 02  7  8 16 52 30.0000000  0  9G29G 6G15G17G18G21G22G23G26
  23175013.7114     521712.47949    397382.48247                  23175013.5394
        46.7504         34.5004
  21825464.9144    1119942.03549    852447.71748                  21825465.2734
        49.2504         41.2504
  20522871.0004    -191309.09649   -148738.93248                  20522870.1294
        49.5004         45.0004
  20624369.3834      38062.68449     26318.98048                  20624368.4804
        50.5004         44.0004
  20626756.8134    -439319.52549   -337813.02048                  20626755.4024
        49.5004         44.2504
  22705085.2034    -942649.96649   -723918.82647                  22705086.3984
        47.5004         38.5004
  23409242.1414     545512.66649    413710.90147                  23409243.2854
        45.0004         33.0004
  22518031.4304    1074545.88049    817517.15148                  22518031.2934
        47.7504         40.5004
  22288412.0554     342147.50049    259511.74647                  22288412.6764
        48.0004         38.7504
 02  7  8 16 52 45.0000000  0  9G29G 6G15G17G18G21G22G23G26
  23179553.1484     545566.24749    415969.82347                  23179552.9774
        46.7504         35.2504
  21833957.5784    1164569.86249    887222.61948                  21833958.1484
        48.7504         41.0004
  20522222.8834    -194713.55949   -151391.76648                  20522222.0984
        50.2504         44.5004
  20625285.4144      42877.38949     30070.68748                  20625284.8754
        50.5004         43.5004
  20624526.7114    -451038.84949   -346944.96348                  20624525.3554
        49.7504         44.2504
  22699247.8914    -973325.38849   -747821.71647                  22699249.3754
        46.7504         38.7504
  23413816.2894     569555.14249    432445.25947                  23413818.3554
        43.0004         32.5004
  22526087.0704    1116878.08649    850503.26348                  22526087.0984
        47.7504         39.5004
  22291712.3444     359491.30549    273026.39848                  22291713.1724
        47.7504         39.5004
 02  7  8 16 53  0.0000000  0  9G29G 6G15G17G18G21G22G23G26
  23184138.6254     569665.71749    434748.61747                  23184138.8984
        47.0004         34.7504
  21842489.6254    1209406.77849    922160.44448                  21842489.7034
        48.7504         41.2504
  20521609.7734    -197935.15949   -153902.09648                  20521609.5164
        50.7504         44.7504
  20626234.9064      47867.35749     33958.97848                  20626234.4344
        51.0004         44.0004
  20622340.6644    -462526.63349   -355896.47248                  20622338.9494
        50.0004         44.2504
  22693445.9774   -1003815.71049   -771580.38947                  22693447.0784
        47.2504         38.2504
  23418435.6804     593827.40849    451358.66947                  23418437.2424
        43.5004         33.5004
  22534173.5864    1159373.45749    883616.52448                  22534173.1764
        48.0004         39.7504
  22295065.6484     377111.89449    286756.72347                  22295065.8674
        48.0004         38.7504
 02  7  8 16 53 15.0000000  0  9G29G 6G15G17G18G21G22G23G26
  23188769.5394     594000.95349    453711.13847                  23188769.6914
        46.7504         34.7504
  21851059.5234    1254442.89449    957253.48848                  21851060.3484
        48.5004         41.2504
  20521029.9774    -200983.41749   -156277.37248                  20521029.4614
        50.2504         44.7504
  20627215.9774      53022.94649     37976.30548                  20627215.1134
        50.5004         44.2504
  20620196.8984    -473792.51549   -364675.08248                  20620195.6254
        49.5004         44.7504
  22687677.0474   -1034130.50849   -795202.28347                  22687678.4574
        46.2504         38.5004
  23423096.3054     618319.40049    470443.30247                  23423098.2584
        43.7504         33.0004
  22542289.3284    1202022.02349    916849.16348                  22542289.4184
        48.0004         39.7504
  22298469.5634     394999.54649    300695.18047                  22298469.8164
        47.2504         38.5004
 02  7  8 16 53 30.0000000  0  9G29G 6G15G17G18G21G22G23G26
  23193445.5474     618571.63649    472857.11247                  23193445.3484
        46.2504         34.0004
  21859667.4694    1299677.79649    992501.42548                  21859668.4184
        47.7504         41.2504
  20520482.7344    -203858.51449   -158517.69948                  20520482.3794
        50.0004         44.5004
  20628228.5084      58344.07949     42122.65648                  20628227.5864
        50.0004         43.7504
  20618095.0084    -484836.73649   -373280.96048                  20618093.4414
        50.0004         44.7504
  22681941.6644   -1064269.68549   -818687.34547                  22681943.0124
        47.0004         38.7504
  23427799.1414     643030.62649    489698.77247                  23427800.4494
        44.2504         33.0004
  22550434.5394    1244823.28649    950200.77848                  22550434.1994
        48.0004         40.5004
  22301924.0784     413153.95449    314841.45947                  22301924.4224
        47.2504         38.5004
 02  7  8 16 53 45.0000000  0  9G29G 6G15G17G18G21G22G23G26
  23198164.5084     643370.99749    492181.28147                  23198164.2584
        47.0004         34.2504
  21868312.2894    1345104.68449   1027898.96448                  21868313.0004
        48.0004         41.2504
  20519967.4304    -206567.05549   -160628.24348                  20519966.6024
        50.5004         44.5004
  20629271.3594      63824.05449     46392.75648                  20629270.9654
        50.0004         44.2504
  20616034.5234    -495665.88849   -381719.25848                  20616032.7154
        48.5004         44.5004
  22676238.7424   -1094239.84349   -842040.68147                  22676239.5554
        47.0004         38.2504
  23432542.0394     667954.24249    509119.70447                  23432543.0234
        44.0004         32.5004
  22558606.3524    1287770.50349    983666.13648                  22558607.0204
        48.0004         40.0004
  22305428.4844     431568.41349    329190.39347                  22305428.4964
        46.0004         38.5004
 02  7  8 16 54  0.0000000  0  9G29G 6G15G17G18G21G22G23G26
  23202926.9694     668398.26549    511683.05447                  23202926.7894
        46.7504         34.2504
  21876992.6884    1390722.63949   1063445.39248                  21876993.8674
        48.5004         41.7504
  20519483.3984    -209109.66049   -162609.49848                  20519483.0514
        50.0004         44.0004
  20630344.1804      69462.19949     50786.12148                  20630343.4104
        50.7504         44.2504
  20614014.7584    -506280.70649   -389990.52848                  20614012.8714
        50.0004         44.2504
  22670567.5164   -1124041.61049   -865262.80247                  22670568.7464
        47.2504         38.5004
  23437325.5234     693089.39549    528705.52647                  23437326.6684
        44.2504         33.2504
  22566806.8914    1330862.67849   1017244.44548                  22566807.1684
        47.5004         40.0004
  22308981.5234     450242.12949    343741.35547                  22308982.4774
        47.0004         39.0004
 02  7  8 16 54 15.0000000  0  9G29G 6G15G17G18G21G22G23G26
  23207730.5474     693642.99849    531354.26047                  23207731.0704
        47.0004         34.5004
  21885708.1804    1436521.22449   1099132.56448                  21885708.9184
        48.2504         41.2504
  20519029.4534    -211496.55649   -164469.42048                  20519028.4384
        50.2504         44.0004
  20631445.2894      75248.42649     55294.86048                  20631444.8444
        50.5004         44.5004
  20612033.4844    -516691.39549   -398102.74848                  20612032.1884
        49.5004         44.2504
  22664926.3054   -1153685.23749   -888361.71747                  22664927.2934
        46.5004         38.5004
  23442147.2274     718425.33249    548447.76947                  23442147.9454
        44.5004         33.7504
  22575032.5864    1374089.31049   1050927.51248                  22575032.5434
        47.7504         39.7504
  22312582.5704     469164.72349    358486.22847                  22312582.8954
        46.2504         38.5004
 02  7  8 16 54 30.0000000  0  9G29G 6G15G17G18G21G22G23G26
  23212576.6954     719105.92049    551195.50047                  23212575.8284
        46.5004         34.0004
  21894457.9454    1482501.25449   1134961.12448                  21894458.7894
        47.5004         41.0004
  20518605.0704    -213726.68449   -166207.19148                  20518604.1764
        49.7504         44.7504
  20632574.8284      81183.58049     59919.65748                  20632574.3054
        50.0004         44.2504
  20610091.4534    -526896.91749   -406055.09548                  20610090.0784
        49.5004         44.0004
  22659315.0084   -1183169.67849   -911336.56747                  22659316.6724
        45.2504         38.5004
  23447005.9384     743962.94249    568347.17047                  23447006.9614
        44.5004         33.5004
  22583284.4924    1417451.17349   1084715.96448                  22583283.9964
        47.0004         39.5004
  22316230.7734     488337.13949    373425.77447                  22316231.3954
        46.5004         38.2504
 02  7  8 16 54 45.0000000  0  9G29G 6G15G17G18G21G22G23G26
  23217462.6254     744783.14449    571203.71947                  23217462.4264
        46.7504         34.2504
  21903241.3524    1528658.67349   1170927.91348                  21903242.0084
        47.5004         40.7504
  20518209.8364    -215803.90949   -167825.81448                  20518209.0314
        50.0004         44.0004
  20633732.0864      87264.19649     64657.79348                  20633731.1134
        49.0004         43.7504
  20608187.4384    -536901.11449   -413850.57048                  20608186.0864
        48.2504         44.0004
  22653734.6174   -1212498.72049   -934190.34247                  22653736.1334
        45.7504         38.7504
  23451903.0234     769698.18349    588400.59047                  23451904.4804
        44.5004         33.2504
  22591560.7344    1460944.12149   1118606.57447                  22591560.6884
        47.7504         39.0004
  22319926.0474     507755.37549    388556.89147                  22319926.8054
        46.0004         38.5004
 02  7  8 16 55  0.0000000  0  9G29G 6G15G17G18G21G22G23G26
  23222388.9304     770671.41649    591376.39747                  23222388.9184
        46.5004         34.5004
  21912057.9694    1574990.17549   1207030.34948                  21912058.5594
        48.5004         40.7504
  20517843.1334    -217731.27649   -169327.64748                  20517842.4694
        50.0004         44.2504
  20634916.0634      93486.92649     69506.66848                  20634915.4144
        49.2504         44.0004
  20606321.9304    -546707.11149   -421491.59048                  20606320.2194
        47.5004         43.7504
  22648182.2114   -1241675.44149   -956925.42947                  22648183.8054
        46.5004         38.7504
  23456837.3204     795627.47949    608605.19247                  23456838.6414
        44.2504         32.5004
  22599861.2424    1504564.84149   1152596.72248                  22599861.3794
        47.2504         39.5004
  22323667.4384     527416.17949    403876.99147                  22323668.2274
        46.5004         38.0004
 02  7  8 16 55 15.0000000  0  9G29G 6G15G17G18G21G22G23G26
  23227354.7034     796765.10549    611709.12747                  23227355.1884
        46.0004         34.0004
  21920906.4384    1621490.08449   1243263.99948                  21920907.8834
        48.0004         40.7504
  20517503.6954    -219514.22649   -170716.97248                  20517502.9614
        50.0004         44.2504
  20636126.3524      99846.57449     74462.22448                  20636125.7154
        49.0004         44.0004
  20604492.2274    -556320.47349   -428982.51948                  20604490.5824
        47.7504         43.7504
  22642657.9224   -1270705.19049   -979545.98047                  22642659.6214
        45.7504         39.0004
  23461807.5164     821745.27749    628956.70647                  23461808.4414
        44.2504         32.2504
  22608185.2734    1548307.66349   1186682.02348                  22608185.4574
        47.0004         39.7504
  22327453.8834     547314.09349    419381.85747                  22327454.3284
        45.2504         38.0004
 02  7  8 16 55 30.0000000  0  9G29G 6G15G17G18G21G22G23G26
  23232359.0704     823065.86649    632203.20347                  23232359.7504
        46.0004         33.5004
  21929787.6644    1668159.97849   1279630.11548                  21929788.7774
        47.7504         40.5004
  20517192.1884    -221150.92149   -171992.32248                  20517191.1254
        50.0004         44.0004
  20637362.9774     106344.73649     79525.73348                  20637362.3874
        47.2504         44.0004
  20602699.9534    -565739.42949   -436321.96148                  20602698.6524
        47.0004         44.5004
  22637162.0864   -1299586.02449  -1002050.49747                  22637163.6684
        45.5004         39.2504
  23466813.1414     848052.98749    649456.18447                  23466814.5354
        45.5004         32.0004
  22616532.9224    1592174.05149   1220863.60948                  22616532.7734
        47.0004         40.2504
  22331285.9144     567450.78849    435072.79947                  22331286.1254
        45.7504         38.2504
 02  7  8 16 55 45.0000000  0  9G29G 6G15G17G18G21G22G23G26
  23237403.3054     849572.06949    652857.37647                  23237403.5084
        46.5004         34.0004
  21938700.6094    1714998.29949   1316127.49448                  21938701.3204
        47.0004         40.0004
  20516908.4774    -222642.61649   -173154.68248                  20516907.6684
        49.7504         44.2504
  20638625.5234     112980.18849     84696.21048                  20638624.6684
        48.0004         44.0004
  20600944.1334    -574965.31249   -443510.95948                  20600942.4184
        47.5004         44.5004
  22631694.5864   -1328319.22349  -1024439.97447                  22631695.7704
        45.5004         39.0004
  23471855.3364     874549.02249    670102.39347                  23471856.3204
        43.7504         30.7504
  22624903.7814    1636162.44349   1255140.26548                  22624903.6214
        47.2504         40.5004
  22335163.1414     587824.71949    450948.59347                  22335162.7304
        46.5004         38.0004
 02  7  8 16 56  0.0000000  0  9G29G 6G15G17G18G21G22G23G26
  23242486.1414     876280.65949    673669.26947                  23242486.3484
        46.0004         34.5004
  21947645.2974    1762001.94549   1352753.66648                  21947645.9774
        47.5004         40.7504
  20516651.6334    -223992.23949   -174206.33448                  20516650.7934
        50.5004         44.2504
  20639913.6954     119750.12249     89971.49748                  20639913.2304
        47.0004         43.5004
  20599224.9924    -584000.98349   -450551.72548                  20599222.8954
        47.0004         44.0004
  22626254.2974   -1356907.66749  -1046716.64947                  22626255.4964
        46.5004         38.5004
  23476932.6254     901230.06349    690892.77647                  23476933.5354
        43.5004         31.0004
  22633297.2194    1680269.59549   1289509.45648                  22633297.1024
        47.5004         40.0004
  22339084.8594     608432.82549    467006.86447                  22339084.8754
        45.2504         37.7504
 02  7  8 16 56 15.0000000  0  9G29G 6G15G17G18G21G22G23G26
  23247605.9694     903187.93449    694635.96447                  23247606.3714
        46.5004         33.7504
  21956620.2664    1809167.02149   1389505.64148                  21956621.0394
        47.2504         40.7504
  20516421.2814    -225203.36649   -175150.07148                  20516420.2234
        50.0004         44.2504
  20641227.2664     126650.94849     95348.75048                  20641226.5634
        48.0004         44.0004
  20597541.2974    -592850.10449   -457447.14448                  20597539.3874
        46.5004         44.2504
  22620841.1484   -1385354.79049  -1068883.21248                  22620841.8014
        46.2504         39.5004
  23482044.5704     928092.35949    711824.41647                  23482045.8634
        43.5004         30.5004
  22641712.0314    1724491.68749   1323968.22148                  22641712.5394
        47.0004         40.5004
  22343049.6954     629271.37749    483244.69947                  22343050.1724
        46.7504         38.0004
 02  7  8 16 56 30.0000000  0  9G29G 6G15G17G18G21G22G23G26
  23252764.2504     930293.77349    715757.38647                  23252764.2274
        46.2504         33.7504
  21965626.5164    1856493.35849   1426383.27448                  21965627.3794
        47.7504         40.7504
  20516217.1094    -226275.83949   -175985.75948                  20516216.0164
        49.7504         44.5004
  20642565.0474     133682.67649    100828.02148                  20642564.3094
        47.0004         43.7504
  20595892.3284    -601512.69549   -464197.20548                  20595891.0904
        46.2504         44.2504
  22615454.6334   -1413660.48749  -1090939.55747                  22615455.7344
        46.0004         38.7504
  23487190.3674     955135.63549    732897.03247                  23487191.7344
        43.7504         31.0004
  22650149.4534    1768828.50549   1358516.37048                  22650149.5944
        46.7504         40.2504
  22347059.0474     650340.33849    499662.07547                  22347059.5664
        45.5004         38.0004
 02  7  8 16 56 45.0000000  0  9G29G 6G15G17G18G21G22G23G26
  23257959.8524     957596.70249    737032.38947                  23257960.2544
        46.7504         34.0004
  21974662.7504    1903979.52949   1463385.44948                  21974663.7704
        47.0004         40.5004
  20516039.1094    -227210.91949   -176714.41348                  20516038.4694
        50.2504         44.7504
  20643927.6414     140844.02649    106408.27748                  20643926.8094
        48.7504         43.0004
  20594279.5864    -609990.11649   -470802.99348                  20594278.0044
        47.7504         44.2504
  22610094.9534   -1441826.13749  -1112886.79147                  22610096.0744
        47.0004         39.0004
  23492371.0004     982358.25749    754109.44747                  23492372.5594
        43.0004         31.0004
  22658607.9774    1813278.45049   1393152.68748                  22658608.0554
        47.0004         39.7504
  22351112.0314     671638.20149    516257.80747                  22351112.1214
        46.7504         37.5004
 02  7  8 16 57  0.0000000  0  9G29G 6G15G17G18G21G22G23G26
  23263190.9224     985089.52549    758455.33447                  23263192.0084
        46.0004         34.2504
  21983727.9224    1951618.30549   1500506.53148                  21983728.9964
        47.0004         41.0004
  20515885.9924    -228015.58749   -177341.41948                  20515885.1564
        49.5004         44.2504
  20645313.8674     148128.11049    112084.18948                  20645313.3014
        47.0004         44.0004
  20592699.8754    -618289.32449   -477269.90048                  20592698.1884
        46.5004         44.2504
  22604760.9844   -1469858.59049  -1134730.23747                  22604761.4844
        46.2504         39.0004
                                    775456.08657                  22604761.9924
                        31.0004
  22667086.7194    1857834.33949   1427871.53948                  22667087.0164
        46.5004         40.0004
  22355207.0634     693157.98449    533026.47347                  22355206.4964
        45.5004         37.2504
 02  7  8 16 57 15.0000000  0  9G29G 6G15G17G18G21G22G23G26
  23268458.8364    1012770.53049    780024.95147                  23268459.3954
        46.0004         34.7504
  21992822.4384    1999407.96149   1537745.19048                  21992823.0904
        47.5004         40.7504
  20515757.2894    -228691.26649   -177867.91848                  20515756.7344
        50.5004         44.2504
  20646723.3524     155533.61049    117854.71548                  20646722.6524
        48.0004         43.5004
  20591154.3054    -626411.71749   -483599.01248                  20591152.6804
        47.0004         44.0004
  22599451.0704   -1497759.29649  -1156471.01847                  22599452.2974
        46.7504         39.0004
  23502830.2974    1037318.23149    796935.31647                  23502831.4064
        43.7504         31.7504
  22675584.7034    1902494.44349   1462671.60548                  22675585.4064
        46.7504         39.5004
  22359344.0474     714897.99749    549966.74547                  22359344.1844
        46.7504         38.0004
 02  7  8 16 57 30.0000000  0  9G29G 6G15G17G18G21G22G23G26
  23273762.4774    1040641.92249    801742.89247                  23273763.0434
        46.7504         35.5004
  22001945.5084    2047350.53849   1575103.00648                  22001946.0394
        47.5004         39.7504
  20515653.7894    -229235.65649   -178292.12348                  20515653.2034
        50.5004         44.5004
  20648155.8204     163062.63249    123721.48148                  20648155.1414
        48.2504         43.2504
  20589642.7584    -634355.15349   -489788.70648                  20589640.9104
        48.0004         44.0004
  22594167.4534   -1525526.05349  -1178107.41447                  22594168.2114
        46.5004         38.7504
  23508108.2734    1065055.63049    818548.84347                  23508109.6954
        44.0004         31.5004
  22684104.0394    1947260.77849   1497554.44347                  22684104.1454
        47.0004         39.0004
  22363523.6804     736860.40249    567080.29147                  22363523.6414
        46.0004         38.0004
 02  7  8 16 57 45.0000000  0  9G29G 6G15G17G18G21G22G23G26
  23279101.9614    1068699.52249    823605.95947                  23279102.6604
        46.0004         35.5004
  22011097.1254    2095441.90849   1612576.77348                  22011097.8164
        48.5004         40.0004
  20515574.2734    -229652.69149   -178617.08348                  20515573.7154
        50.0004         44.0004
  20649611.3524     170711.48349    129681.62248                  20649611.0704
        47.5004         43.2504
  20588164.6414    -642123.55749   -495841.99548                  20588162.7624
        47.5004         44.0004
  22588908.0944   -1553162.58249  -1199642.32947                  22588909.4224
        47.0004         38.7504
  23513418.5474    1092961.22449    840293.41547                  23513420.0004
        44.0004         31.5004
  22692642.1484    1992129.18649   1532516.82947                  22692642.0234
        47.2504         39.2504
  22367744.3754     759041.09549    584363.95747                  22367744.1914
        46.0004         37.2504
 02  7  8 16 58  0.0010000  0  9G29G 6G15G17G18G21G22G23G26
  23284477.0134    1096946.36549    845616.48547                  23284477.1884
        45.5004         34.0004
  22020277.7244    2143686.28949   1650169.75848                  22020278.6424
        47.7504         40.2504
  20515519.7314    -229941.03749   -178841.76648                  20515519.0134
        49.5004         43.7504
  20651089.8804     178481.81149    135736.42348                  20651089.5794
        48.5004         43.0004
  20586719.5364    -649716.22749   -501758.35748                  20586717.7124
        48.0004         43.7504
  22583673.8564   -1580669.42749  -1221076.21247                  22583674.8644
        47.0004         39.0004
  23518761.7634    1121037.66949    862171.14947                  23518763.0054
        43.5004         32.5004
  22701200.0214    2037103.65449   1567561.86848                  22701200.1224
        46.7504         39.7504
  22372007.2164     781442.75349    601819.79747                  22372007.4034
        46.5004         38.0004
 02  7  8 16 58 15.0010000  0  9G29G 6G15G17G18G21G22G23G26
  23289886.7944    1125373.57249    867767.54747                  23289886.9624
        46.2504         35.2504
  22029485.1064    2192072.27849   1687873.09848                  22029485.7744
        47.5004         40.2504
  20515488.3334    -230105.46549   -178969.89348                  20515487.5754
        50.0004         44.0004
  20652590.6384     186367.94649    141881.46048                  20652589.9384
        48.2504         43.2504
  20585307.5054    -657136.97849   -507540.76248                  20585306.1384
        47.7504         44.0004
  22578464.1144   -1608047.70449  -1242409.90347                  22578465.1654
        46.5004         38.7504
  23524134.6064    1149276.19549    884175.14047                  23524136.4624
        44.2504         32.0004
  22709776.6924    2082173.07849   1602680.89248                  22709776.9114
        47.5004         39.5004
  22376310.9114     804057.34449    619441.55147                  22376311.2394
        47.2504         38.0004
 02  7  8 16 58 30.0010000  0  9G29G 6G15G17G18G21G22G23G26
  23295332.6924    1153990.55449    890066.46947                  23295333.0054
        46.5004         34.5004
  22038721.4354    2240610.42449   1725694.98848                  22038722.3254
        47.5004         40.0004
  20515481.8564    -230138.29649   -178995.48648                  20515481.3064
        50.0004         44.0004
  20654115.0284     194377.91849    148122.98748                  20654114.3844
        48.5004         43.5004
  20583929.5284    -664378.81949   -513183.75048                  20583928.1264
        49.2504         44.5004
  22573279.4424   -1635291.62849  -1263638.90448                  22573280.6734
        47.0004         39.7504
  23529541.5754    1177685.93449    906312.55647                  23529542.6774
        44.2504         32.0004
  22718373.0674    2127347.89649   1637882.03447                  22718373.1104
        46.7504         39.0004
  22380656.4974     826893.94949    637236.29147                  22380656.3684
        45.5004         38.0004
 02  7  8 16 58 45.0010000  0  9G29G 6G15G17G18G21G22G23G26
  23300813.3254    1182793.31249    912510.18147                  23300813.8644
        47.0004         34.5004
  22047985.9814    2289296.70149   1763632.31048                  22047987.3844
        47.5004         39.7504
  20515500.1304    -230043.30049   -178921.46248                  20515499.3924
        49.7504         44.0004
  20655662.0284     202507.99749    154458.12148                  20655661.4894
        48.7504         43.0004
  20582584.3104    -671445.56349   -518690.28148                  20582583.0364
        48.2504         44.5004
  22568119.7474   -1662404.91349  -1284766.10747                  22568120.5444
        47.2504         39.0004
  23534979.5054    1206262.80249    928580.20047                  23534980.7944
        44.0004         31.7504
  22726989.0134    2172624.03749   1673162.13647                  22726988.9854
        46.5004         38.7504
  22385043.3254     849948.51249    655200.88247                  22385043.6694
        47.2504         38.5004
 02  7  8 16 59  0.0010000  0  9G29G 6G15G17G18G21G22G23G26
  23306328.7554    1211776.41949    935094.40047                  23306329.3564
        46.2504         34.2504
  22057277.7554    2338125.72049   1801680.85748                  22057279.1494
        47.5004         40.0004
  20515541.6924    -229825.66749   -178751.88048                  20515540.8414
        50.0004         44.5004
  20657230.8254     210753.05349    160882.83648                  20657230.2944
        49.2504         43.5004
  20581272.2944    -678342.32149   -524064.38248                  20581270.4624
        48.5004         44.0004
  22562984.2474   -1689392.49249  -1305795.36847                  22562984.8494
        46.5004         39.0004
  23540448.5134    1235001.38949    950973.86547                  23540449.2244
        44.0004         32.2504
  22735623.2784    2217995.98649   1708516.88847                  22735623.3724
        47.2504         39.2504
  22389470.8494     873215.72649    673331.17047                  22389471.0604
        47.2504         38.0004
 02  7  8 16 59 15.0010000  0  9G29G 6G15G17G18G21G22G23G26
  23311878.3494    1240942.07349    957820.88647                  23311878.7044
        45.7504         34.0004
  22066597.6464    2387099.53149   1839842.22448                  22066598.6344
        47.7504         39.5004
  20515606.4744    -229483.05449   -178484.90748                  20515605.7434
        49.5004         44.0004
  20658822.6144     219115.41249    167398.95148                  20658821.9624
        49.2504         43.5004
  20579992.5834    -685066.92349   -529304.31748                  20579991.1424
        49.0004         44.2504
  22557873.2314   -1716251.94849  -1326724.78848                  22557873.8844
        47.2504         39.7504
  23545947.6854    1263903.65449    973495.06747                  23545949.6574
        45.0004         31.5004
  22744275.7554    2263465.78549   1743947.89547                  22744275.7634
        47.2504         39.0004
  22393939.7554     896697.77349    691628.86347                  22393939.5214
        46.5004         38.2504
 02  7  8 16 59 30.0010000  0  9G29G 6G15G17G18G21G22G23G26
  23317463.0364    1270289.93449    980689.33347                  23317463.9544
        45.0004         34.0004
  22075944.7944    2436217.82449   1878116.18848                  22075945.9194
        47.7504         39.7504
  20515695.6614    -229015.60249   -178120.66448                  20515694.7824
        49.0004         44.0004
  20660436.0524     227594.95049    174006.39248                  20660435.3964
        49.0004         43.0004
  20578745.5364    -691619.54549   -534410.26648                  20578744.0364
        48.7504         44.7504
  22552786.7634   -1742983.42149  -1347554.46548                  22552787.8254
        47.7504         39.5004
  23551479.2474    1292969.16549    996143.45847                  23551480.4854
        44.2504         31.0004
  22752946.8564    2309033.09149   1779454.87547                  22752947.0564
        46.0004         39.2504
  22398448.8724     920394.28349    710093.67647                  22398449.2004
        46.0004         38.0004
 02  7  8 16 59 45.0010000  0  9G29G 6G15G17G18G21G22G23G26
  23323082.5134    1299816.91349   1003697.34947                  23323082.4314
        45.2504         33.7504
  22085318.5054    2485477.61149   1916500.38948                  22085319.5564
        48.0004         39.5004
  20515808.0914    -228425.94649   -177661.19448                  20515807.3494
        50.0004         44.0004
  20662071.7394     236188.98749    180703.04248                  20662071.1384
        49.0004         43.0004
  20577530.7784    -698002.85849   -539384.26548                  20577529.0914
        48.5004         44.5004
  22547722.9354   -1769589.83349  -1368286.71347                  22547723.8684
        47.7504         39.2504
  23557040.3104    1322194.93349   1018916.75447                  23557041.6734
        44.5004         31.2504
  22761636.1694    2354694.90849   1815035.49247                  22761636.3414
        47.0004         39.0004
  22402998.7474     944302.47649    728723.42847                  22402998.6344
        47.0004         38.2504
 02  7  8 17  0  0.0010000  0  9G29G 6G15G17G18G21G22G23G26
  23328734.5674    1329521.67449   1026843.90647                  23328735.5054
        44.5004         33.5004
  22094718.9424    2534877.23249   1954993.55948                  22094720.3254
        47.0004         39.7504
  20515943.1694    -227715.42949   -177107.54348                  20515942.8684
        50.0004         44.0004
  20663728.3724     244896.20249    187487.88148                  20663728.3764
        49.7504         43.2504
  20576348.3564    -704218.31149   -544227.46848                  20576346.3764
        48.5004         44.0004
  22542683.8724   -1796072.64049  -1388922.64148                  22542684.5524
        46.5004         39.5004
  23562632.5134    1351579.23249   1041813.57747                  23562633.4934
        43.5004         30.5004
  22770342.8104    2400449.55449   1850688.45947                  22770342.7824
        46.5004         39.0004
  22407587.5914     968420.72449    747516.86447                  22407588.4894
        47.0004         37.7504
 02  7  8 17  0 15.0010000  0  9G29G 6G15G17G18G21G22G23G26
  23334420.9354    1359401.15149   1050126.61047                  23334421.1774
        43.5004         33.0004
  22104145.4664    2584413.75749   1993593.41048                  22104146.7434
        47.2504         39.5004
  20516100.6224    -226886.78849   -176461.84548                  20516100.1494
        50.2504         44.5004
  20665406.3724     253713.92349    194358.83048                  20665405.5634
        48.0004         43.2504
  20575196.8964    -710268.66249   -548942.01948                  20575195.2244
        47.2504         44.2504
  22537666.7164   -1822434.52249  -1409464.33948                  22537667.5794
        47.2504         39.5004
  23568253.9974    1381118.97749   1064831.52247                  23568254.5134
        44.2504         31.0004
  22779066.7314    2446294.04349   1886411.40747                  22779066.4664
        47.0004         38.5004
  22412216.7714     992746.16249    766471.73247                  22412217.3804
        44.7504         37.2504
 02  7  8 17  0 30.0010000  0  9G29G 6G15G17G18G21G22G23G26
  23340139.3724    1389455.89949   1073545.88447                  23340139.8994
        44.0004         33.2504
  22113598.1304    2634087.76349   2032300.39248                  22113599.0674
        48.7504         39.7504
  20516281.1384    -225939.05949   -175723.35848                  20516280.8374
        50.0004         44.5004
  20667105.6064     262643.01749    201316.56548                  20667105.0524
        48.5004         44.0004
  20574077.0444    -716153.11649   -553527.31448                  20574075.2904
        47.0004         44.0004
  22532673.9894   -1848674.28449  -1429910.87548                  22532675.2784
        47.7504         39.7504
  23573904.2634    1410814.70149   1087971.00047                  23573905.7944
        44.5004         31.5004
  22787807.6694    2492228.95549   1922204.84347                  22787807.9194
        46.2504         38.7504
  22416885.5364    1017279.56049    785588.65447                  22416885.3334
        47.0004         37.5004
 02  7  8 17  0 45.0010000  0  9G29G 6G15G17G18G21G22G23G26
  23345892.2554    1419686.93449   1097102.51747                  23345892.8174
        42.5004         33.2504
  22123077.1064    2683900.02749   2071115.10448                  22123078.0714
        48.0004         40.0004
  20516484.3964    -224871.22649   -174891.29348                  20516483.4384
        50.5004         44.5004
  20668826.0834     271684.39749    208361.78548                  20668825.3804
        47.5004         43.7504
  20572989.1384    -721870.87149   -557982.69648                  20572987.7084
        47.5004         44.0004
  22527703.9034   -1874791.07449  -1450261.59548                  22527704.8254
        47.2504         39.5004
  23579585.2944    1440667.20449   1111232.66547                  23579586.4504
        44.2504         31.2504
  22796566.5214    2538255.01249   1958069.28147                  22796566.3924
        46.0004         38.7504
  22421594.0134    1042021.57349    804868.14247                  22421593.8064
        45.7504         37.5004
 02  7  8 17  1  0.0010000  0  9G29G 6G15G17G18G21G22G23G26
  23351678.5674    1450090.78149   1120793.82647                  23351678.7674
        42.0004         33.5004
  22132582.0134    2733847.27949   2110035.00548                  22132583.0914
        48.0004         40.5004
  20516709.9894    -223686.44849   -173968.08248                  20516709.4384
        50.0004         45.0004
  20670567.5134     280835.18749    215492.27748                  20670566.6574
        47.7504         44.2504
  20571932.1464    -727424.84749   -562310.46048                  20571930.2514
        47.0004         44.2504
  22522756.4744   -1900787.79849  -1470518.73848                  22522757.5444
        47.5004         39.5004
  23585295.6614    1470673.02149   1134613.81247                  23585296.6774
        44.2504         31.0004
  22805342.0674    2584369.01949   1994002.26647                  22805341.4974
        45.5004         38.7504
  22426341.2554    1066969.13749    824307.80647                  22426340.9854
        45.0004         38.5004
 02  7  8 17  1 15.0010000  0  9G29G 6G15G17G18G21G22G23G26
  23357496.2554    1480666.48949   1144619.04447                  23357496.9544
        43.0004         34.0004
  22142111.7864    2783928.27949   2149059.11448                  22142112.8254
        47.7504         39.5004
  20516957.5604    -222385.63949   -172954.45748                  20516956.9074
        49.5004         44.2504
  20672329.2634     290094.42949    222707.27548                  20672328.6034
        47.5004         43.7504
  20570906.2784    -732816.18549   -566511.49548                  20570904.6814
        46.5004         44.0004
  22517832.3644   -1926665.48449  -1490683.13448                  22517833.5524
        47.5004         40.0004
  23591034.5134    1500830.87349   1158113.38647                  23591034.9384
        43.2504         32.0004
  22814133.4274    2630569.64249   2030002.73547                  22814133.0874
        45.2504         39.0004
  22431127.6304    1092121.02149    843906.65847                  22431127.7434
        44.7504         38.0004
 02  7  8 17  1 30.0010000  0  9G29G 6G15G17G18G21G22G23G26
  23363346.9194    1511411.66249   1168576.30247                  23363347.5834
        42.2504         33.5004
  22151666.7394    2834140.67049   2188185.61548                  22151668.3644
        47.5004         40.0004
  20517226.6304    -220970.85949   -171852.02548                  20517225.7784
        49.7504         44.7504
  20674111.5754     299460.00549    230005.11848                  20674110.5794
        46.7504         43.5004
  20569910.6694    -738047.00549   -570587.44148                  20569909.1534
        46.2504         44.0004
  22512930.5444   -1952426.07849  -1510756.29348                  22512931.1464
        47.5004         40.2504
  23596801.4354    1531138.33449   1181729.54447                  23596802.5524
        44.0004         31.5004
  22822941.2314    2676854.55249   2066068.89147                  22822941.4504
        46.0004         38.5004
  22435952.3964    1117474.92949    863662.94247                  22435952.6424
        46.2504         38.0004
 02  7  8 17  1 45.0010000  0  9G29G 6G15G17G18G21G22G23G26
  23369231.2394    1542330.23449   1192668.66747                  23369231.8104
        43.0004         33.2504
  22161248.4424    2884488.37449   2227417.55347                  22161249.1774
        47.5004         39.2504
  20517518.5214    -219437.87549   -170657.49848                  20517517.6534
        48.2504         44.0004
  20675914.8724     308936.01049    237389.02548                  20675914.2944
        48.2504         43.0004
  20568946.7164    -743113.22849   -574535.14648                  20568945.2554
        47.5004         44.0004
  22508050.9424   -1978065.47349  -1530735.01348                  22508051.8844
        47.5004         39.7504
  23602597.8724    1561599.19349   1205465.25347                  23602599.4274
        41.0004         31.7504
  22831765.3414    2723227.61349   2102203.73747                  22831765.3764
        44.5004         39.2504
  22440816.0284    1143034.88949    883579.78147                  22440816.5914
        46.5004         38.0004
 02  7  8 17  2  0.0010000  0  9G29G 6G15G17G18G21G22G23G26
  23375146.2084    1573414.32249   1216890.03847                  23375146.6534
        42.5004         33.2504
  22170852.7784    2934963.43449   2266748.73348                  22170853.7984
        47.7504         39.5004
  20517831.0054    -217794.47449   -169376.93348                  20517830.4194
        49.0004         44.5004
  20677737.6534     318514.84749    244853.03848                  20677737.2204
        48.0004         43.7504
  20568012.5914    -748022.67549   -578360.69248                  20568010.8964
        47.0004         44.0004
  22503194.0524   -2003591.32649  -1550625.25748                  22503195.2204
        47.5004         39.7504
  23608422.2634    1592205.49149   1229314.24147                  23608423.1344
        42.7504         31.7504
  22840605.2474    2769680.85249   2138401.04747                  22840605.5364
        45.0004         38.7504
  22445717.8884    1168792.98149    903651.01347                  22445717.8294
        47.0004         37.7504
 02  7  8 17  2 15.0010000  0  9G29G 6G15G17G18G21G22G23G26
  23381093.3334    1604667.51449   1241243.14247                  23381094.1424
        43.5004         33.5004
  22180483.3024    2985569.56649   2306182.03048                  22180484.2434
        48.0004         39.5004
  20518165.8104    -216036.48649   -168007.07248                  20518165.1064
        48.5004         44.2504
  20679580.5134     328200.47549    252400.28948                  20679580.4934
        48.5004         43.5004
  20567109.0364    -752771.29249   -582060.91148                  20567107.4114
        47.7504         44.2504
  22498359.0444   -2028999.65649  -1570423.93348                  22498359.4504
        48.0004         39.5004
  23614274.9354    1622960.85749   1253279.43847                  23614275.8334
        42.7504         31.0004
  22849461.0134    2816218.01749   2174663.74847                  22849461.5094
        44.7504         39.0004
  22450657.4034    1194753.01149    923879.58947                  22450657.8134
        45.5004         37.5004
 02  7  8 17  2 30.0010000  0  9G29G 6G15G17G18G21G22G23G26
  23387071.3414    1636083.47249   1265723.10847                  23387071.6104
        41.7504         33.5004
  22190137.2244    3036300.36249   2345712.47647                  22190138.1144
        47.7504         39.2504
  20518520.5444    -214170.18549   -166552.81448                  20518520.6104
        49.0004         44.0004
  20681442.7244     337986.75449    260025.95448                  20681442.3374
        47.7504         44.0004
  20566234.6694    -757365.38649   -585640.71948                  20566232.9974
        47.7504         44.0004
  22493545.4354   -2054296.63949  -1590135.83748                  22493546.2164
        48.0004         39.5004
  23620154.6224    1653858.65849   1277355.60947                  23620155.4784
        42.7504         30.5004
  22858331.2084    2862832.65549   2210986.83447                  22858331.6854
        46.2504         39.0004
  22455635.0604    1220908.61749    944260.56447                  22455635.2314
        47.0004         37.5004
 02  7  8 17  2 45.0010000  0  9G29G 6G15G17G18G21G22G23G26
  23393081.9894    1667667.15449   1290333.75647                  23393082.0564
        44.0004         33.7504
  22199815.3024    3087160.59049   2385343.78147                  22199816.3534
        47.7504         39.0004
  20518897.5364    -212190.51949   -165010.21948                  20518897.1104
        49.5004         44.5004
  20683325.2944     347878.83049    267734.06048                  20683324.8924
        49.0004         43.2504
  20565390.7314    -761800.05649   -589096.30948                  20565388.9424
        47.5004         44.0004
  22488753.4354   -2079476.94349  -1609756.83248                  22488754.3214
        48.2504         40.0004
  23626062.0524    1684903.82149   1301546.61047                  23626063.0214
        42.0004         31.0004
  22867217.3964    2909529.49049   2247373.95148                  22867217.7554
        45.7504         39.5004
  22460650.1774    1247264.59249    964797.68447                  22460650.7824
        46.2504         37.2504
 02  7  8 17  3  0.0010000  0  9G29G 6G15G17G18G21G22G23G26
  23399123.0914    1699413.77649   1315071.38447                  23399123.1854
        44.0004         34.0004
  22209517.5134    3138145.59649   2425072.30747                  22209518.5834
        47.7504         39.2504
  20519294.8804    -210101.84049   -163382.67048                  20519294.4624
        49.5004         44.5004
  20685226.6924     357872.19149    275521.09748                  20685226.4314
        47.0004         43.2504
  20564576.3334    -766079.65249   -592431.05548                  20564574.6494
        46.2504         43.7504
  22483982.8884   -2104545.21049  -1629290.51648                  22483983.8684
        48.0004         40.0004
  23631996.9504    1716091.52449   1325848.67147                  23631998.2514
        42.0004         30.5004
  22876118.4814    2956303.89749   2283821.53347                  22876118.5604
        45.5004         39.0004
  22465703.1534    1273816.39549    985487.39347                  22465703.0794
        47.0004         37.7504
 02  7  8 17  3 15.0010000  0  9G29G 6G15G17G18G21G22G23G26
  23405195.2944    1731322.18149   1339935.07347                  23405195.6884
        45.0004         34.0004
  22219243.2554    3189254.03649   2464897.02747                  22219244.1104
        48.0004         39.2504
  20519712.9974    -207905.13449   -161670.95648                  20519712.0244
        49.7504         45.0004
  20687147.4664     367965.87849    283386.30448                  20687147.0324
        48.7504         43.2504
  20563791.2164    -770205.36249   -595645.87448                  20563789.3804
        47.5004         43.7504
  22479233.8104   -2129502.46649  -1648737.69748                  22479234.7514
        47.5004         40.0004
  23637958.5054    1747420.40549   1350260.73847                  23637960.1184
        41.2504         30.5004
  22885033.5994    3003154.48149   2320328.46247                  22885034.2004
        46.2504         38.5004
  22470793.1144    1300562.72349   1006328.69247                  22470793.0404
        46.5004         38.0004
 02  7  8 17  3 30.0010000  0  9G29G 6G15G17G18G21G22G23G26
  23411298.8564    1763393.91849   1364926.02747                  23411298.3724
        43.7504         34.0004
  22228992.1534    3240487.54449   2504819.19647                  22228993.5954
        48.5004         39.2504
  20520151.5994    -205598.51649   -159873.59148                  20520151.2904
        49.2504         44.7504
  20689088.0054     378161.76849    291331.15648                  20689086.9934
        48.7504         43.0004
  20563036.1694    -774175.28049   -598739.31648                  20563034.1424
        47.5004         43.5004
  22474506.5914   -2154346.65649  -1668096.78348                  22474507.2714
        48.2504         40.2504
  23643947.0054    1778891.96149   1374784.00447                  23643948.5954
        41.2504         30.7504
  22893964.1924    3050082.95449   2356896.08147                  22893964.2554
        45.2504         38.5004
  22475919.6694    1327505.32449   1027322.89947                  22475920.0674
        46.5004         36.5004
 02  7  8 17  3 45.0010000  0  9G29G 6G15G17G18G21G22G23G26
  23417432.0674    1795626.32849   1390042.17747                  23417432.1694
        43.2504         33.7504
  22238764.9744    3291843.42149   2544836.71247                  22238766.3684
        47.5004         39.0004
  20520610.9894    -203184.43549   -157992.48548                  20520610.2744
        49.0004         44.7504
  20691047.1534     388457.46749    299353.77148                  20691046.1304
        47.7504         43.5004
  20562309.8104    -777991.98549   -601713.36548                  20562308.2004
        47.0004         44.0004
  22469799.9274   -2179080.24449  -1687369.68648                  22469800.3214
        48.7504         40.2504
  23649963.0134    1810503.44149   1399416.28247                  23649964.0914
        40.0004         30.0004
  22902908.7554    3097086.54649   2393522.24147                  22902908.5874
        45.7504         38.2504
  22481083.2714    1354641.49249   1048467.96847                  22481083.4424
        47.0004         37.5004
 02  7  8 17  4  0.0010000  0  9G29G 6G15G17G18G21G22G23G26
  23423595.7004    1828016.39749   1415281.15447                  23423596.0634
        41.5004         33.0004
  22248560.6614    3343318.49549   2584947.11547                  22248561.9744
        47.5004         39.0004
  20521090.3724    -200665.81649   -156029.92548                  20521089.7824
        49.5004         44.2504
  20693024.7634     398850.05249    307451.88848                  20693024.1304
        49.0004         43.2504
  20561611.7714    -781658.51249   -604570.40248                  20561610.1424
        49.0004         44.0004
  22465113.3884   -2203706.34449  -1706558.82848                  22465114.1814
        48.5004         39.7504
  23656004.8724    1842251.48649   1424154.99647                  23656005.8064
        39.7504         30.7504
  22911866.7864    3144162.08449   2430204.46747                  22911867.0134
        46.0004         38.2504
  22486283.5834    1381968.22449   1069761.52047                  22486283.8214
        47.7504         37.2504
 02  7  8 17  4 15.0010000  0  9G29G 6G15G17G18G21G22G23G26
  23429788.8104    1860565.86849   1440644.39147                  23429789.3534
        42.0004         33.5004
  22258378.7864    3394914.63049   2625151.84348                  22258380.3684
        48.2504         39.5004
  20521590.1854    -198040.58149   -153984.27848                  20521589.5134
        50.0004         44.5004
  20695021.4354     409341.68149    315627.19248                  20695020.6304
        49.0004         43.7504
  20560942.9194    -785172.76149   -607308.76848                  20560941.2904
        49.0004         44.0004
  22460447.8804   -2228222.74849  -1725662.49748                  22460448.5324
        48.5004         40.2504
  23662072.3884    1874137.99549   1449001.56847                  23662073.6224
        41.7504         30.2504
  22920839.2084    3191311.41749   2466944.18347                  22920839.5214
        45.5004         37.5004
  22491520.5674    1409487.34449   1091204.97147                  22491519.9784
        47.0004         37.2504
 02  7  8 17  4 30.0010000  0  9G29G 6G15G17G18G21G22G23G26
  23436013.3884    1893272.36149   1466129.94947                  23436013.7164
        42.0004         34.2504
  22268220.0054    3446629.33049   2665448.97447                  22268221.3454
        48.2504         39.0004
  20522109.2634    -195310.83149   -151857.20148                  20522108.9354
        49.5004         44.5004
  20697036.2554     419930.02949    323877.84348                  20697035.6494
        50.2504         43.5004
  20560302.9814    -788537.03449   -609930.28448                  20560301.1884
        49.2504         43.7504
  22455803.2714   -2252631.46549  -1744682.24748                  22455804.0564
        48.2504         40.0004
  23668166.6694    1906160.30649   1473953.98947                  23668167.0834
        42.2504         30.5004
  22929824.8024    3238532.04449   2503739.46247                  22929825.4814
        46.2504         38.2504
  22496793.1224    1437196.44149   1112796.48147                  22496793.4234
        46.5004         37.0004
 02  7  8 17  4 45.0010000  0  9G29G 6G15G17G18G21G22G23G26
  23442266.7714    1926135.08049   1491737.26547                  23442267.2204
        42.0004         33.2504
  22278083.5674    3498461.88749   2705837.92847                  22278084.8134
        47.5004         39.2504
  20522648.7784    -192477.04349   -149649.05948                  20522648.1034
        49.7504         44.0004
  20699069.3884     430614.77549    332203.61548                  20699068.8174
        50.5004         43.5004
  20559691.1144    -791751.95049   -612435.41448                  20559689.2714
        50.0004         44.2504
  22451179.1384   -2276933.19349  -1763618.63548                  22451179.5794
        49.5004         40.2504
  23674285.7394    1938317.71849   1499011.67547                  23674287.0174
        43.0004         30.5004
  22938824.0524    3285823.23649   2540589.72347                  22938824.2744
        46.0004         39.0004
  22502101.8174    1465094.69749   1134535.37947                  22502101.7354
        48.0004         37.2504
 02  7  8 17  5  0.0010000  0  9G29G 6G15G17G18G21G22G23G26
  23448550.0674    1959154.91149   1517466.98747                  23448550.2244
        41.0004         33.5004
  22287969.6614    3550413.01449   2746319.29147                  22287971.0754
        48.0004         39.2504
  20523208.1304    -189538.11949   -147358.98248                  20523207.2084
        48.7504         44.7504
  20701121.2784     441396.92449    340605.28448                  20701120.4074
        50.0004         43.2504
  20559107.9034    -794816.46549   -614823.34848                  20559106.2084
        49.7504         44.0004
  22446574.5054   -2301126.83749  -1782470.78748                  22446575.4744
        49.0004         40.0004
  23680430.5914    1970610.86649   1524175.10847                  23680432.0244
        43.5004         31.5004
  22947836.9814    3333185.73149   2577495.55747                  22947837.0284
        46.0004         38.7504
  22507446.8334    1493183.13349   1156422.46947                  22507447.2204
        48.0004         37.7504
 02  7  8 17  5 15.0010000  0  9G29G 6G15G17G18G21G22G23G26
  23454862.5284    1992329.00849   1543316.92547                  23454863.4664
        42.2504         33.5004
  22297877.7944    3602479.91749   2786890.85247                  22297878.7434
        48.5004         39.0004
  20523786.5674    -186496.73449   -144989.08348                  20523786.2244
        48.5004         45.0004
  20703190.8644     452273.93349    349080.86448                  20703190.4784
        50.0004         43.5004
  20558552.7164    -797733.33449   -617096.22548                  20558551.1224
        49.7504         44.0004
  22441990.6144   -2325214.99649  -1801240.76248                  22441991.5634
        48.5004         40.7504
  23686601.0674    2003036.86749   1549442.07647                  23686601.7594
        42.5004         30.5004
  22956862.8884    3380616.64049   2614454.68747                  22956863.2714
        43.7504         38.7504
  22512827.7784    1521458.82449   1178455.47147                  22512827.8684
        48.0004         37.2504
 02  7  8 17  5 30.0010000  0  9G29G 6G15G17G18G21G22G23G26
  23461204.7244    2025656.30649   1569286.25547                  23461205.5714
        41.7504         33.5004
  22307807.5284    3654661.41749   2827551.71847                  22307808.5134
        48.0004         38.7504
  20524384.9504    -183353.59749   -142539.88048                  20524384.3374
        49.2504         44.5004
  20705278.7634     463244.96249    357629.71848                  20705278.0674
        49.7504         43.5004
  20558025.5364    -800503.37949   -619254.69948                  20558024.0214
        49.2504         44.5004
  22437426.9114   -2349198.39749  -1819929.10748                  22437427.6884
        48.7504         40.5004
  23692796.4814    2035594.44449   1574811.57047                  23692797.5714
        40.0004         29.7504
  22965901.1224    3428114.93549   2651466.32847                  22965901.5404
        46.0004         38.2504
  22518244.0364    1549920.78249   1200633.61247                  22518244.1344
        48.0004         37.2504
 02  7  8 17  5 45.0010000  0  9G29G 6G15G17G18G21G22G23G26
  23467575.3254    2059134.94449   1595373.48547                  23467576.1534
        42.0004         33.5004
  22317758.7714    3706955.58249   2868300.36547                  22317760.0714
        47.7504         39.0004
  20525002.3334    -180110.45249   -140012.76048                  20525001.3924
        49.2504         44.5004
  20707384.0054     474308.33849    366250.51648                  20707383.3294
        50.2504         43.0004
  20557526.3254    -803128.46749   -621300.22548                  20557524.9624
        50.5004         45.0004
  22432882.6924   -2373078.54549  -1838536.99648                  22432883.6614
        49.0004         40.5004
  23699016.8024    2068281.68649   1600282.10447                  23699018.0634
        40.5004         31.0004
  22974952.2164    3475678.62349   2688528.91447                  22974952.7634
        45.5004         38.5004
  22523695.3494    1578567.09349   1222955.40347                  22523695.5444
        48.0004         37.0004
 02  7  8 17  6  0.0010000  0  9G29G 6G15G17G18G21G22G23G26
  23473976.6774    2092769.36749   1621582.09247                  23473976.9464
        41.5004         33.0004
  22327732.1384    3759367.02749   2909140.40347                  22327734.0524
        48.0004         39.0004
  20525638.8724    -176762.42749   -137403.90448                  20525638.1924
        49.2504         44.5004
  20709507.7244     485468.95749    374947.11348                  20709507.1774
        50.0004         43.2504
  20557055.0994    -805603.74849   -623229.00448                  20557053.5714
        49.7504         44.0004
  22428359.1144   -2396850.73149  -1857060.74948                  22428360.0054
        49.5004         40.7504
  23705262.5994    2101103.00649   1625857.07947                  23705264.1884
        41.0004         30.5004
  22984016.9584    3523312.33049   2725646.07647                  22984017.3564
        45.5004         38.5004
  22529182.2084    1607402.36449   1245424.42847                  22529182.3604
        48.2504         37.5004
 02  7  8 17  6 15.0010000  0  9G29G 6G15G17G18G21G22G23G26
  23480405.3254    2126555.15249   1647908.69147                  23480405.8454
        41.0004         32.7504
  22337727.4114    3811891.25549   2950068.33147                  22337728.7244
        47.5004         39.0004
  20526295.0754    -173313.70349   -134716.59148                  20526294.6964
        49.7504         44.2504
  20711649.2164     496722.63249    383716.20648                  20711648.9744
        50.2504         43.5004
  20556611.7784    -807933.57149   -625044.46148                  20556609.9114
        50.0004         44.5004
  22423854.7474   -2420519.07249  -1875503.57548                  22423856.0484
        48.5004         40.7504
  23711532.7244    2134053.87649   1651533.03047                  23711534.7124
        39.0004         30.7504
  22993093.6464    3571011.50349   2762814.24047                  22993094.2824
        46.2504         38.5004
  22534704.4504    1636422.14949   1268037.24847                  22534705.4974
        48.2504         37.2504
 02  7  8 17  6 30.0010000  0  9G29G 6G15G17G18G21G22G23G26
  23486862.9504    2160491.18449   1674352.34047                  23486863.9814
        41.2504         33.5004
  22347743.8724    3864526.85049   2991083.02647                  22347744.4974
        48.5004         38.2504
  20526970.5754    -169765.42449   -131951.69148                  20526969.9784
        49.0004         44.2504
  20713808.2554     508068.22249    392556.92348                  20713808.0604
        50.7504         43.5004
  20556196.0054    -810119.06949   -626747.43448                  20556194.7354
        50.0004         44.2504
  22419371.0054   -2444084.79849  -1893866.46148                  22419371.9584
        48.7504         40.0004
  23717827.4194    2167132.92049   1677308.86047                  23717829.0874
        39.0004         30.7504
  23002183.0754    3618774.84349   2800032.41747                  23002182.6574
        46.5004         38.0004
  22540261.7554    1665625.24749   1290792.89847                  22540261.9894
        47.7504         37.2504
 02  7  8 17  6 45.0010000  0  9G29G 6G15G17G18G21G22G23G26
  23493350.1694    2194582.33749   1700916.84447                  23493350.9154
        43.0004         34.0004
  22357782.1854    3917278.96049   3032188.50947                  22357783.7744
        48.0004         38.7504
  20527665.8724    -166112.13649   -129104.97448                  20527664.8414
        50.2504         44.5004
  20715986.1614     519511.15949    401473.49648                  20715985.5054
        50.2504         43.5004
  20555808.5054    -812155.08349   -628333.94248                  20555806.8374
        49.5004         44.0004
  22414906.6304   -2467542.57849  -1912145.22948                  22414907.4814
        49.2504         40.5004
  23724148.1534    2200344.96049   1703188.31847                  23724149.4544
        42.5004         31.0004
  23011284.8564    3666607.40649   2837304.52347                  23011285.3924
        47.5004         37.7504
  22545854.5214    1695016.68449   1313695.30747                  22545855.0444
        47.5004         37.5004
 02  7  8 17  7  0.0010000  0  8G29G 6G15G17G18G21G23G26
  23499865.6464    2228819.87949   1727595.46347                  23499866.6144
        42.0004         33.0004
  22367840.9744    3970138.73049   3073377.89447                  22367842.1924
        48.2504         38.5004
  20528379.3884    -162362.43449   -126183.14148                  20528378.7594
        50.0004         44.5004
  20718180.4274     531042.93349    410459.28648                  20718179.9074
        50.5004         43.5004
  20555447.7004    -814050.09349   -629810.57948                  20555446.2434
        49.7504         44.0004
  22410462.0284   -2490900.89049  -1930346.47648                  22410462.7554
        49.2504         40.7504
  23020398.5914    3714500.42949   2874623.75147                  23020398.9934
        45.5004         38.0004
  22551482.1064    1724587.63649   1336737.60447                  22551482.2714
        47.7504         37.7504
 02  7  8 17  7 15.0010000  0  8G29G 6G15G17G18G21G23G26
  23506409.5834    2263207.68349   1754391.12347                  23506410.5444
        44.0004         33.0004
  22377921.7244    4023110.01649   3114654.17647                  22377922.8564
        47.7504         39.2504
  20529112.0214    -158512.15149   -123182.92448                  20529111.3534
        49.7504         44.2504
  20720392.6854     542667.60349    419517.46248                  20720392.2354
        50.2504         43.2504
  20555114.6774    -815800.14849   -631174.26148                  20555113.1344
        50.0004         44.0004
  22406036.5994   -2514155.61949  -1948467.02248                  22406037.3994
        48.7504         40.7504
  23029524.9744    3762457.68149   2911993.02647                  23029524.8644
        45.5004         38.2504
  22557143.7474    1754342.06149   1359922.86347                  22557144.8644
        48.5004         38.0004
 02  7  8 17  7 30.0010000  0  9G29G 6G15G17G18G21G 3G23G26
  23512981.8024    2297742.48149   1781301.35147                  23512982.2554
        44.2504         33.7504
  22388022.2714    4076189.44149   3156014.71947                  22388023.2004
        48.5004         39.0004
  20529863.3494    -154564.45349   -120106.79448                  20529862.6884
        50.0004         44.2504
  20722621.7944     554382.07149    428645.61448                  20722621.4744
        50.0004         43.0004
  20554809.1924    -817408.42649   -632427.46348                  20554807.2784
        50.0004         44.0004
  22401630.5054   -2537310.00449  -1966509.36948                  22401630.7634
        49.5004         40.5004
  23628841.4974     -84928.20859    -55117.62057                  23628842.6924
        42.5004         30.0004
  23038662.2084    3810475.81149   2949409.74547                  23038662.7554
        47.0004         37.5004
  22562839.9504    1784276.57849   1383248.45647                  22562840.9194
        48.2504         37.5004
 02  7  8 17  7 45.0010000  0  9G29G 6G15G17G18G21G 3G23G26
  23519581.0284    2332424.52349   1808326.30547                  23519582.0284
        42.7504         33.0004
  22398143.5364    4129377.34449   3197459.78847                  22398145.1104
        47.7504         38.5004
  20530633.1774    -150518.66749   -116954.24648                  20530632.6734
        49.0004         44.5004
  20724867.8024     566187.04749    437844.27948                  20724867.2864
        50.0004         43.7504
  20554529.9504    -818874.45549   -633569.83048                  20554527.6774
        50.0004         44.5004
  22397243.3564   -2560362.89049  -1984472.63848                  22397244.2084
        49.0004         40.7504
  23621616.4194    -122896.32949    -84703.14247                  23621616.8254
        42.0004         29.2504
  23047811.3564    3858555.26149   2986874.22547                  23047811.8924
        46.5004         38.2504
  22568571.1224    1814391.68249   1406714.76047                  22568571.3924
        48.2504         36.7504
 02  7  8 17  8  0.0010000  0  9G29G 6G15G17G18G21G 3G23G26
  23526209.4814    2367255.77649   1835467.51347                  23526210.0914
        43.0004         33.5004
  22408286.0834    4182675.68349   3238990.90747                  22408286.7434
        47.5004         38.0004
  20531421.9424    -146372.48749   -113723.45048                  20531422.0324
        49.0004         45.0004
  20727131.9354     578084.68849    447115.17848                  20727131.6814
        50.0004         43.7504
  20554278.4274    -820196.04949   -634599.63548                  20554276.4704
        50.0004         43.7504
  22392876.3254   -2583312.32349  -2002355.28448                  22392877.2634
        48.7504         41.0004
  23614408.4814    -160773.06249   -114217.43647                  23614409.6464
        43.0004         30.0004
  23056972.5054    3906697.86749   3024387.93147                  23056973.0524
        45.7504         38.5004
  22574336.6144    1844689.29649   1430323.27547                  22574337.1854
        47.7504         36.7504
 02  7  8 17  8 15.0010000  0  9G29G 6G15G17G18G21G 3G23G26
  23532865.8254    2402235.26449   1862724.26247                  23532866.0364
        43.5004         32.7504
  22418448.7474    4236083.40349   3280607.25547                  22418450.1734
        47.2504         38.7504
  20532230.1924    -142126.65949   -110415.01148                  20532229.6884
        49.5004         44.7504
  20729413.6854     590074.19249    456457.63648                  20729413.1064
        49.7504         43.7504
  20554054.1774    -821374.14849   -635517.62948                  20554052.2744
        49.5004         43.5004
  22388528.2164   -2606159.19049  -2020158.01648                  22388529.3964
        49.0004         40.5004
  23607218.8104    -198558.88549   -143660.91447                  23607219.4784
        43.0004         30.2504
  23066145.5604    3954902.61849   3061950.05347                  23066146.3334
        46.5004         38.0004
  22580136.3104    1875168.38049   1454073.19547                  22580136.9114
        48.2504         37.0004
 02  7  8 17  8 30.0010000  0  9G29G 6G15G17G18G21G 3G23G26
  23539550.5054    2437364.35149   1890097.57347                  23539550.7474
        45.7504         33.5004
  22428632.6064    4289601.75349   3322309.81947                  22428634.2244
        47.7504         38.2504
  20533057.4664    -137779.62749   -107027.71548                  20533056.3174
        49.7504         44.7504
  20731713.0444     602157.24649    465873.00048                  20731712.6884
        50.2504         44.0004
  20553857.7004    -822407.10449   -636322.54048                  20553856.0834
        49.5004         44.0004
  22384200.9354   -2628901.89949  -2037879.58348                  22384201.4744
        49.2504         40.5004
  23600045.3494    -236251.90049   -173032.07847                  23600046.6734
        42.0004         30.5004
  23075330.8644    4003170.77549   3099561.58947                  23075331.4504
        47.2504         38.0004
  22585971.7554    1905830.30449   1477965.60147                  22585971.0954
        47.2504         37.2504
 02  7  8 17  8 45.0010000  0  9G29G 6G15G17G18G21G 3G23G26
  23546264.2474    2472644.39749   1917588.50347                  23546264.7044
        43.7504         33.2504
  22438838.4814    4343232.21849   3364099.74247                  22438840.0754
        47.5004         38.5004
  20533904.1694    -133329.66749   -103560.21648                  20533903.7394
        50.0004         44.2504
  20734030.4114     614335.60349    475362.62048                  20734029.7554
        50.2504         43.7504
  20553688.7164    -823293.49549   -637013.23748                  20553687.2824
        49.5004         44.5004
  22379893.4194   -2651538.93249  -2055518.81348                  22379894.1064
        49.0004         41.0004
  23592890.3964    -273850.09749   -202329.35947                  23592892.2474
        43.0004         31.2504
  23084528.4664    4051503.85949   3137223.71247                  23084528.5484
        47.0004         38.0004
  22591841.1534    1936676.51649   1502001.59247                  22591841.2314
        47.7504         37.7504
 02  7  8 17  9  0.0010000  0  9G29G 6G15G17G18G21G 3G23G26
  23553005.3024    2508067.70349   1945191.05347                  23553005.6184
        44.5004         33.5004
  22449064.2244    4396967.04049   3405970.96847                  22449065.7594
        47.7504         38.7504
  20534769.0364    -128784.21949   -100018.30348                  20534768.2984
        50.5004         44.0004
  20736364.8174     626601.78849    484920.68148                  20736364.4464
        50.7504         43.2504
  20553546.9814    -824040.82649   -637595.55848                  20553545.2904
        49.7504         43.5004
  22375604.0524   -2674077.38849  -2073081.21848                  22375605.1224
        49.0004         41.0004
  23585752.3964    -311360.77649   -231558.41947                  23585753.7044
        42.5004         32.2504
  23093736.7944    4099894.12249   3174930.40447                  23093737.0284
        47.2504         38.0004
  22597744.6924    1967699.36749   1526175.23247                  22597744.5994
        48.5004         37.5004
 02  7  8 17  9 15.0010000  0  9G29G 6G15G17G18G21G 3G23G26
  23559773.6854    2543636.99549   1972907.37347                  23559774.3684
        44.5004         33.5004
  22459309.8414    4450808.89649   3447925.61047                  22459311.4274
        48.2504         38.2504
  20535652.7164    -124140.37349    -96399.73148                  20535652.1534
        50.5004         44.5004
  20738716.0754     638958.76549    494549.48548                  20738715.0914
        50.5004         43.5004
  20553431.4974    -824646.38949   -638067.42748                  20553429.3644
        49.5004         44.2504
  22371334.4894   -2696514.47649  -2090564.63648                  22371335.7944
        49.0004         40.7504
  23578631.6144    -348780.75749   -260716.82047                  23578633.1774
        42.7504         31.7504
  23102956.5284    4148344.23749   3212683.71547                  23102957.2594
        47.0004         38.2504
  22603682.6774    1998901.48149   1550488.56047                  22603682.4234
        47.5004         37.0004
 02  7  8 17  9 30.0010000  0  9G29G 6G15G17G18G21G 3G23G26
  23566570.2864    2579351.35349   2000736.75147                  23566569.8924
        44.0004         33.2504
  22469576.2394    4504756.80049   3489962.88847                  22469577.1774
        48.2504         38.7504
  20536555.1224    -119398.81749    -92705.01448                  20536554.2244
        50.2504         44.5004
  20741084.5914     651405.78049    504248.46648                  20741084.1614
        50.2504         43.5004
  20553342.9814    -825110.77449   -638429.28648                  20553341.0604
        49.5004         43.7504
  22367084.1854   -2718850.87449  -2107969.59848                  22367085.3644
        48.7504         40.5004
  23571527.7394    -386110.34449   -289804.77347                  23571529.2634
        44.2504         31.5004
  23112187.9744    4196853.25549   3250482.93547                  23112187.8644
        47.0004         37.7504
  22609653.7164    2030281.97149   1574940.87747                  22609653.9114
        47.7504         36.0004
 02  7  8 17  9 45.0010000  0  9G29G 6G15G17G18G21G 3G23G26
  23573394.4194    2615214.43249   2028681.98847                  23573394.8334
        44.5004         32.5004
  22479862.6694    4558814.45449   3532085.66947                  22479864.5054
        48.0004         38.0004
  20537476.7714    -114555.55949    -88931.04848                  20537476.5054
        50.0004         44.7504
  20743471.2714     663947.00649    514020.83648                  20743470.3174
        50.2504         43.0004
  20553282.2474    -825430.16249   -638678.16148                  20553280.6814
        49.7504         44.0004
  22362853.5364   -2741082.58749  -2125292.99048                  22362854.1304
        49.0004         41.0004
  23564442.6304    -423345.34049   -318819.04147                  23564443.5404
        44.0004         32.2504
  23121430.1384    4245424.81449   3288330.88447                  23121430.7354
        47.5004         38.0004
  22615659.5364    2061844.50849   1599535.05347                  22615660.6534
        48.2504         37.0004
 02  7  8 17 10  0.0010000  0  9G29G 6G15G17G18G21G 3G23G26
  23580246.4894    2651223.64349   2056741.10547                  23580246.8764
        45.2504         32.5004
  22490170.0524    4612979.20449   3574291.92447                  22490171.5874
        48.0004         38.0004
  20538417.2004    -109612.86449    -85079.58048                  20538416.7824
        50.5004         44.5004
  20745875.3174     676579.98049    523864.72348                  20745874.4854
        50.0004         43.2504
  20553248.8254    -825606.94949   -638815.89148                  20553246.7164
        49.2504         43.7504
  22358642.2714   -2763211.99849  -2142536.67048                  22358643.0524
        49.0004         41.0004
  23557374.4034    -460487.85049   -347761.22647                  23557375.6814
        44.5004         31.5004
  23130684.6144    4294056.32249   3326225.56047                  23130684.8454
        48.0004         37.2504
  22621700.2554    2093586.61149   1624269.16147                  22621700.7824
        48.0004         37.2504
 02  7  8 17 10 15.0010000  0  9G29G 6G15G17G18G21G 3G23G26
  23587127.1304    2687379.00749   2084914.09647                  23587127.1464
        44.7504         33.0004
  22500497.5914    4667250.99849   3616581.57147                  22500499.2004
        48.0004         37.7504
  20539376.7314    -104570.58449    -81150.53948                  20539376.0174
        50.5004         44.7504
  20748296.7634     689304.94249    533780.25648                  20748296.1464
        50.5004         43.2504
  20553241.9034    -825640.97349   -638842.41848                  20553240.3534
        48.7504         43.5004
  22354450.6224   -2785238.97349  -2159700.52948                  22354451.6924
        48.7504         40.5004
  23550325.0524    -497537.35049   -376630.95047                  23550326.0404
        45.2504         32.7504
  23139950.1854    4342747.78549   3364166.93647                  23139950.3214
        48.5004         37.7504
  22627774.3724    2125508.14549   1649143.06747                  22627775.0444
        48.0004         37.7504
 02  7  8 17 10 30.0010000  0  9G29G 6G15G17G18G21G 3G23G26
  23594035.1464    2723683.96449   2113203.64247                  23594035.8764
        44.5004         32.2504
  22510846.2244    4721633.48149   3658957.46947                  22510847.8764
        47.7504         38.0004
  20540356.0444     -99424.72149    -77140.77648                  20540355.4424
        50.0004         45.0004
  20750736.2714     702125.76949    543770.50848                  20750735.9934
        50.7504         43.5004
  20553263.8494    -825528.48049   -638754.75048                  20553262.0054
        50.0004         43.7504
  22350279.4034   -2807159.52949  -2176781.45648                  22350280.0634
        49.0004         40.5004
  23543293.0054    -534489.62549   -405424.90847                  23543294.0054
        44.2504         33.0004
  23149227.9194    4391502.84449   3402157.87747                  23149228.5874
        48.0004         37.2504
  22633883.8494    2157612.84149   1674159.70047                  22633884.0404
        48.2504         37.5004
 02  7  8 17 10 45.0010000  0  9G29G 6G15G17G18G21G 3G23G26
  23600971.5754    2760135.01449   2141607.05447                  23600972.6264
        45.5004         32.7504
  22521215.6304    4776122.85549   3701416.66847                  22521217.0134
        47.7504         38.2504
  20541354.1924     -94178.74349    -73053.00348                  20541353.3844
        50.5004         44.2504
  20753193.7634     715039.02449    553832.79348                  20753193.2044
        50.2504         43.5004
  20553312.2164    -825273.00949   -638555.67948                  20553310.8884
        49.5004         44.0004
  22346127.8414   -2828977.13749  -2193782.16948                  22346128.3174
        49.2504         41.5004
  23536279.0364    -571347.88349   -434145.59047                  23536280.0054
        45.0004         32.7504
  23158517.6224    4440317.73049   3440195.43347                  23158518.0134
        48.2504         37.5004
  22640027.5054    2189896.97249   1699316.15847                  22640027.7474
        48.0004         37.2504
 02  7  8 17 11  0.0010000  0  9G29G 6G15G17G18G21G 3G23G26
  23607936.0914    2796733.02649   2170124.97747                  23607936.1614
        45.2504         32.0004
  22531605.1384    4830720.08949   3743959.89947                  22531606.4544
        47.7504         38.5004
  20542371.8494     -88831.48849    -68886.31548                  20542371.1924
        50.5004         44.5004
  20755668.7084     728045.95149    563968.04948                  20755668.2244
        50.5004         43.7504
  20553388.2554    -824873.56949   -638244.42748                  20553386.7084
        49.7504         44.2504
  22341995.6384   -2850690.46249  -2210701.62148                  22341996.8724
        48.7504         41.7504
  23529282.9584    -608110.69449   -462791.92847                  23529284.0834
        44.0004         32.5004
  23167817.8644    4489193.38249   3478280.32847                  23167818.6464
        49.2504         38.0004
  22646204.9274    2222361.41249   1724613.11847                  22646205.4074
        47.7504         37.5004
 02  7  8 17 11 15.0010000  0  9G29G 6G15G17G18G21G 3G23G26
  23614929.4274    2833479.99149   2198758.96547                  23614929.2244
        45.5004         32.0004
  22542015.1144    4885427.14649   3786588.71247                  22542016.3134
        48.5004         38.0004
  20543409.1384     -83380.62049    -64638.88948                  20543408.4274
        50.7504         44.5004
  20758162.0284     741148.82849    574178.07648                  20758161.6654
        50.0004         44.0004
  20553492.3564    -824327.94849   -637819.26148                  20553490.1344
        49.7504         44.0004
  22337883.6854   -2872297.26049  -2227538.06748                  22337884.7594
        49.0004         41.2504
  23522306.2314    -644775.52349   -491361.89747                  23522307.0634
        44.2504         32.0004
  23177131.0914    4538131.87849   3516414.20647                  23177131.1534
        48.0004         37.0004
  22652417.7714    2255008.21849   1750052.17447                  22652418.1884
        47.7504         37.5004
 02  7  8 17 11 30.0010000  0  9G29G 6G15G17G18G21G 3G23G26
  23621949.9664    2870375.38949   2227508.61847                  23621950.3134
        44.7504         32.7504
  22552446.6464    4940243.50349   3829302.71547                  22552448.3064
        48.2504         38.2504
  20544466.2164     -77826.43249    -60310.95648                  20544465.6034
        51.7504         44.2504
  20760673.9194     754347.64149    584462.86048                  20760672.9544
        50.5004         43.5004
  20553623.4114    -823636.43649   -637280.41348                  20553621.6614
        50.0004         43.7504
  22333792.9584   -2893797.90849  -2244291.79948                  22333793.5214
        49.5004         41.5004
  23515347.0214    -681342.29849   -519855.47547                  23515348.4194
        44.5004         32.0004
  23186454.7314    4587132.71449   3554596.66947                  23186456.0444
        47.5004         37.0004
  22658665.2864    2287836.88149   1775632.95147                  22658665.2784
        47.7504         37.2504
 02  7  8 17 11 45.0010000  0  9G29G 6G15G17G18G21G 3G23G26
  23628998.7864    2907414.35249   2256370.10347                  23628998.4154
        45.5004         32.2504
  22562898.3414    4995164.14949   3872097.95047                  22562899.1534
        48.0004         37.7504
  20545541.5834     -72173.54349    -55906.09948                  20545540.9894
        50.5004         44.0004
  20763203.0914     767637.48049    594818.56648                  20763202.3994
        50.5004         43.5004
  20553782.1924    -822803.99849   -636631.75448                  20553780.3174
        49.5004         43.5004
  22329720.5214   -2915196.76349  -2260966.22148                  22329721.6104
        49.0004         41.0004
  23508406.7394    -717815.37949   -548276.04747                  23508407.3374
        45.2504         32.2504
  23195790.7784    4636190.91349   3592823.81147                  23195791.5404
        47.0004         36.7504
  22664945.7084    2320842.61049   1801351.67047                  22664945.7634
        47.0004         37.2504
 02  7  8 17 12  0.0010000  0  9G29G 6G15G17G18G21G 3G23G26
  23636074.7164    2944599.72449   2285345.72247                  23636075.0364
        45.2504         32.5004
  22573369.3884    5050192.03849   3914976.77647                  22573370.7474
        48.2504         38.5004
  20546636.8174     -66418.73249    -51421.83148                  20546635.9624
        51.2504         44.5004
  20765749.6384     781021.58349    605247.73248                  20765749.2084
        50.7504         43.7504
  20553967.8024    -821827.27449   -635870.67448                  20553966.1264
        50.0004         43.5004
  22325668.6534   -2936490.84449  -2277558.98348                  22325669.5014
        49.0004         41.2504
  23501484.9424    -754191.37449   -576620.94847                  23501485.3024
        44.5004         31.5004
  23205137.8254    4685309.45149   3631097.99047                  23205138.2594
        47.5004         37.2504
  22671260.8174    2354028.21749   1827210.59647                  22671260.8494
        47.0004         37.0004
 02  7  8 17 12 15.0010000  0  9G29G 6G15G17G18G21G 3G23G26
  23643178.8494    2981930.79749   2314434.83547                  23643178.3374
        45.5004         32.2504
  22583861.1774    5105326.42349   3957938.58247                  22583862.7244
        49.0004         37.5004
  20547751.2394     -60562.42949    -46858.48248                  20547750.6924
        50.2504         44.2504
  20768314.5364     794499.64449    615750.11848                  20768314.4784
        50.2504         43.7504
  20554181.0364    -820707.04149   -634997.76248                  20554179.5214
        49.2504         44.0004
  22321635.9664   -2957680.73049  -2294070.57048                  22321636.9194
        49.0004         41.5004
  23494580.6774    -790470.49649   -604890.37447                  23494581.0054
        45.2504         30.7504
  23214496.1614    4734487.54349   3669418.56147                  23214496.5674
        47.5004         37.5004
  22677609.3964    2387392.99849   1853209.11247                  22677609.7824
        47.0004         36.5004
 02  7  8 17 12 30.0010000  0  9G29G 6G15G17G18G21G 3G23G26
  23650310.6304    3019409.91849   2343639.33747                  23650310.8644
        45.5004         32.5004
  22594373.4744    5160569.65749   4000985.18847                  22594375.1144
        48.7504         38.0004
  20548885.2634     -54602.01049    -42213.99148                  20548884.6344
        51.0004         44.5004
  20770898.0444     808074.15549    626327.65148                  20770897.3334
        50.7504         43.5004
  20554421.7554    -819440.72949   -634011.00848                  20554420.3454
        50.5004         44.0004
  22317624.0914   -2978763.79049  -2310498.91048                  22317625.1224
        49.0004         41.2504
  23487695.8174    -826649.78149   -633082.00347                  23487696.9074
        44.0004         31.5004
  23223866.1464    4783727.56249   3707787.39847                  23223866.6064
        47.0004         37.7504
  22683993.3644    2420939.30149   1879349.09047                  22683993.2904
        46.2504         36.5004
 02  7  8 17 12 45.0010000  0  9G29G 6G15G17G18G21G 3G23G26
  23657470.0364    3057034.96149   2372957.54647                  23657470.3174
        45.0004         32.2504
  22604906.4664    5215919.49049   4044114.86747                  22604907.8414
        47.5004         38.2504
  20550038.9034     -48539.40949    -37489.88848                  20550038.3334
        50.5004         44.0004
  20773498.9894     821743.28949    636978.93048                  20773498.0444
        51.0004         43.7504
  20554690.1924    -818030.38249   -632912.03248                  20554688.3844
        49.5004         44.0004
  22313632.0364   -2999742.01749  -2326845.57048                  22313632.9384
        49.0004         41.0004
  23480830.0364    -862730.97449   -661197.21247                  23480830.8334
        43.5004         31.5004
  23233247.7244    4833027.25349   3746202.72147                  23233247.9424
        46.7504         37.0004
  22690411.3644    2454664.88649   1905628.75147                  22690411.3564
        46.0004         36.2504
 02  7  8 17 13  0.0010000  0  9G29G 6G15G17G18G21G 3G23G26
  23664656.8964    3094806.39349   2402389.80047                  23664658.0834
        44.7504         32.2504
  22615459.4814    5271376.55949   4087328.10547                  22615461.1104
        48.5004         38.0004
  20551212.2554     -42373.64549    -32685.39648                  20551211.7744
        51.2504         44.0004
  20776118.2714     835507.85249    647704.54948                  20776117.5244
        50.7504         43.5004
  20554985.9974    -816475.25049   -631700.23348                  20554984.5994
        50.0004         43.5004
  22309660.5754   -3020614.46349  -2343109.79648                  22309660.8214
        49.5004         41.5004
  23473982.7634    -898712.86349   -689235.01047                  23473983.8724
        44.2504         31.5004
  23242640.6854    4882387.31349   3784665.08947                  23242641.1884
        46.2504         37.2504
  22696863.4664    2488570.34649   1932048.58747                  22696863.3884
        46.5004         37.0004
 02  7  8 17 13 15.0010000  0  9G29G 6G15G17G18G21G 3G23G26
  23671873.2634    3132723.27849   2431935.40947                  23671873.7554
        46.0004         32.2504
  22626032.7944    5326939.86349   4130624.12747                  22626034.5994
        48.5004         38.2504
  20552405.0214     -36105.48649    -27801.11648                  20552404.7004
        50.7504         44.2504
  20778755.5134     849367.30349    658504.11248                  20778754.9194
        51.0004         43.7504
  20555309.7474    -814776.03049   -630376.15948                  20555308.0604
        50.0004         43.5004
  22305708.2634   -3041381.67849  -2359292.02548                  22305709.3104
        49.7504         41.7504
  23467154.8724    -934595.83349   -717195.75347                  23467155.6494
        43.7504         30.7504
  23252044.7554    4931806.77749   3823173.75447                  23252045.2674
        47.0004         37.0004
  22703349.3884    2522654.87549   1958607.95647                  22703349.6964
        46.7504         37.5004
 02  7  8 17 13 30.0010000  0  9G29G 6G15G17G18G21G 3G23G26
  23679116.9034    3170788.09749   2461596.28947                  23679117.3724
        45.0004         33.2504
  22636626.8334    5382611.63349   4174004.68047                  22636628.3964
        48.0004         38.0004
  20553617.7864     -29732.34649    -22835.03548                  20553617.2904
        50.7504         44.7504
  20781411.4194     863324.14049    669379.57248                  20781411.0874
        50.2504         43.7504
  20555660.6924    -812930.30549   -628937.92348                  20555659.0174
        49.7504         43.7504
  22301776.7474   -3062041.29749  -2375390.40348                  22301777.7084
        50.2504         41.0004
  23460345.8334    -970377.11949   -745077.23347                  23460346.9114
        44.0004         31.5004
  23261461.1064    4981287.97849   3861730.52447                  23261461.2554
        46.7504         37.0004
  22709869.7244    2556920.72249   1985308.61347                  22709870.2674
        46.5004         36.5004
 02  7  8 17 13 45.0010000  0  9G29G 6G15G17G18G21G 3G23G26
  23686387.3104    3208996.18649   2491368.80147                  23686388.1064
        45.2504         33.2504
  22647241.0214    5438387.43649   4217466.28947                  22647242.2944
        48.7504         38.0004
  20554849.5834     -23258.38149    -17790.38648                  20554849.3374
        51.5004         44.5004
  20784085.3414     877374.16249    680327.63048                  20784084.7354
        51.0004         44.0004
  20556039.0914    -810942.38249   -627388.88648                  20556037.6534
        50.5004         44.0004
  22297865.3494   -3082597.09349  -2391407.88448                  22297866.1964
        49.0004         41.2504
  23453555.1064   -1006060.63249   -772882.56047                  23453556.1494
        43.7504         32.0004
  23270887.8334    5030826.42849   3900331.89347                  23270887.6534
        48.0004         36.2504
  22716424.2784    2591363.36549   2012147.03347                  22716424.3994
        47.5004         36.5004
 02  7  8 17 14  0.0010000  0  9G29G 6G15G17G18G21G 3G23G26
  23693686.0834    3247350.29449   2521255.10447                  23693686.4814
        45.0004         33.2504
  22657874.5524    5494269.94749   4261011.03947                  22657876.6814
        48.0004         38.2504
  20556101.5134     -16680.56449    -12664.81748                  20556101.5134
        50.2504         44.7504
  20786777.3334     891520.40649    691350.67148                  20786776.4934
        51.0004         43.0004
  20556445.0994    -808809.48549   -625726.89248                  20556443.1424
        49.5004         44.0004
  22293973.5834   -3103046.63649  -2407342.57748                  22293974.7314
        49.2504         41.2504
  23446784.0604   -1041643.15049   -800609.17447                  23446785.2354
        43.2504         31.7504
  23280326.1534    5080424.85049   3938979.99947                  23280326.5794
        47.5004         37.0004
  22723012.4194    2625985.46149   2039125.27147                  22723012.5134
        47.7504         36.7504
 02  7  8 17 14 15.0010000  0  9G29G 6G15G17G18G21G 3G23G26
  23701012.2634    3285850.01449   2551254.86347                  23701012.6614
        44.0004         32.7504
  22668528.9354    5550258.60849   4304638.51047                  22668530.9814
        47.0004         38.5004
  20557373.0834      -9999.13349     -7458.50648                  20557372.5634
        51.0004         44.2504
  20789487.2634     905762.60549    702448.48648                  20789486.8104
        50.7504         43.7504
  20556878.5214    -806531.86449   -623952.10948                  20556876.9624
        50.0004         43.2504
  22290102.5214   -3123390.16449  -2423194.66748                  22290103.5794
        49.5004         41.5004
  23440032.4974   -1077124.59649   -828257.03447                  23440033.0874
        43.7504         31.5004
  23289775.4814    5130082.69349   3977674.39047                  23289775.6464
        46.7504         36.7504
  22729634.9744    2660786.60549   2066243.03647                  22729635.4974
        46.7504         36.7504
 02  7  8 17 14 30.0010000  0  9G29G 6G15G17G18G21G 3G23G26
  23708365.8494    3324491.92749   2581365.42047                  23708366.1104
        43.7504         32.5004
  22679202.9664    5606350.23849   4348346.21047                  22679204.6304
        47.7504         37.7504
  20558663.6224      -3216.96949     -2173.70948                  20558663.2514
        50.7504         44.0004
  20792214.9354     920097.94349    713618.86748                  20792214.6534
        50.5004         43.7504
  20557338.9894    -804112.62249   -622066.98348                  20557337.4114
        50.0004         43.5004
  22286251.1534   -3143630.54749  -2438966.38248                  22286251.5324
        49.7504         42.0004
  23433299.7084   -1112507.66649   -855828.24247                  23433300.2044
        44.0004         31.7504
  23299236.0054    5179796.84149   4016412.67347                  23299236.3804
        47.0004         37.0004
  22736290.9584    2695763.62249   2093497.84947                  22736291.2594
        46.5004         36.5004
 02  7  8 17 14 45.0010000  0  9G29G 6G15G17G18G21G 3G23G26
  23715746.1694    3363278.12949   2611588.42247                  23715747.1424
        44.5004         33.5004
  22689897.0444    5662546.64549   4392135.56147                  22689898.4354
        47.2504         37.0004
  20559973.6464       3667.95049      3191.15848                  20559973.5404
        51.2504         43.5004
  20794961.2314     934528.32149    724863.31848                  20794960.5794
        50.2504         43.2504
  20557826.4424    -801549.90349   -620070.04748                  20557824.5134
        49.7504         42.7504
  22282419.2474   -3163765.70849  -2454656.10348                  22282419.9314
        49.2504         41.0004
  23426585.1774   -1147789.99749   -883320.92847                  23426586.2044
        43.2504         32.0004
  23308707.1144    5229569.08249   4055196.22047                  23308707.8024
        45.7504         36.0004
  22742980.5054    2730918.24049   2120891.05347                  22742981.0444
        45.5004         36.5004
 02  7  8 17 15  0.0010000  0  9G29G 6G15G17G18G21G 3G23G26
  23723155.1144    3402210.54749   2641925.36547                  23723155.7634
        45.0004         32.2504
  22700611.3804    5718849.93349   4436008.19747                  22700612.8884
        48.2504         38.0004
  20561303.9744      10657.95349      8637.91948                  20561303.4194
        51.0004         44.7504
  20797725.7244     949056.42049    736183.90948                  20797725.6924
        51.0004         43.5004
  20558341.9974    -798841.28149   -617959.43748                  20558340.5324
        50.5004         43.7504
  22278608.6534   -3183793.03849  -2470261.78848                  22278608.8884
        50.0004         41.5004
  23419890.4894   -1182969.01849   -910733.13347                  23419891.7864
        44.2504         32.2504
  23318190.0444    5279401.55449   4094026.70347                  23318190.4234
        46.7504         37.2504
  22749704.5054    2766252.54549   2148424.27047                  22749704.8604
        47.5004         36.5004
 02  7  8 17 15 15.0010000  0  9G29G 6G15G17G18G21G 3G23G26
  23730589.8174    3441280.21549   2672369.25247                  23730591.0404
        44.0004         32.7504
  22711344.1694    5775251.10949   4479957.09747                  22711345.7084
        48.0004         37.0004
  20562652.3804      17744.46749     14159.87848                  20562651.9974
        51.7504         44.5004
  20800507.3884     963673.41449    747573.78148                  20800506.8604
        50.5004         43.5004
  20558883.5214    -795995.53749   -615741.96448                  20558882.1774
        50.2504         43.7504
  22274815.9664   -3203721.43649  -2485790.39348                  22274816.3454
        49.5004         41.5004
  23413214.3334   -1218053.03849   -938071.30047                  23413215.8024
        43.5004         32.2504
  23327682.9664    5329285.38449   4132897.22347                  23327682.8724
        46.0004         37.0004
  22756460.9974    2801757.73949   2176090.65747                  22756461.0634
        45.5004         36.7504
 02  7  8 17 15 30.0010000  0  9G29G 6G15G17G18G21G 3G23G26
  23738052.2394    3480493.65649   2702925.15247                  23738052.6964
        44.5004         32.7504
  22722097.1614    5831756.60149   4523987.29547                  22722098.9814
        47.5004         37.2504
  20564020.6064      24934.31449     19762.34948                  20564020.1344
        50.7504         44.5004
  20803307.2244     978386.15949    759038.25148                  20803306.3884
        51.0004         43.0004
  20559452.5364    -793006.12549   -613412.54648                  20559450.6494
        49.7504         43.7504
  22271043.5994   -3223544.10649  -2501236.60948                  22271044.3564
        49.7504         41.0004
  23406557.7474   -1253035.06349   -965329.99947                  23406558.8294
        43.7504         32.2504
  23337186.1464    5379227.01449   4171812.74947                  23337187.2474
        46.2504         36.7504
  22763251.3174    2837440.15649   2203895.11147                  22763251.5834
        45.7504         37.2504
 02  7  8 17 15 45.0010000  0  9G29G 6G15G17G18G21G 3G23G26
  23745540.9424    3519849.27449   2733591.83847                  23745541.6574
        44.0004         32.5004
  22732868.8644    5888364.90649   4568097.59447                  22732871.0094
        47.7504         37.2504
  20565408.3884      32226.28949     25444.39848                  20565407.4664
        51.0004         44.2504
  20806124.8644     993193.42149    770576.37048                  20806124.2314
        50.7504         43.2504
  20560048.4354    -789874.32949   -610972.19448                  20560046.7394
        50.0004         43.7504
  22267291.3724   -3243262.30949  -2516601.42948                  22267292.4074
        49.5004         41.2504
  23399919.8884   -1287915.97349   -992509.90747                  23399921.1734
        43.0004         33.2504
  23346700.8334    5429225.05349   4210772.23347                  23346700.7784
        47.0004         37.2504
  22770074.3174    2873298.32149   2231836.52747                  22770074.9544
        48.0004         36.7504
 02  7  8 17 16  0.0010000  0  9G29G 6G15G17G18G21G 3G23G26
  23753056.0364    3559341.03049   2764364.62847                  23753056.9354
        42.7504         33.2504
  22743659.2634    5945069.86949   4612283.22847                  22743661.5134
        47.0004         37.0004
  20566814.2004      39614.45349     31201.41548                  20566813.7714
        50.5004         44.7504
  20808959.0444    1008089.29449    782183.55048                  20808958.7004
        50.5004         43.2504
  20560670.2784    -786606.18149   -608425.56848                  20560668.9464
        50.0004         44.0004
  22263558.1854   -3262881.80749  -2531889.32948                  22263558.5134
        49.2504         41.7504
  23393300.6924   -1322701.45349  -1019615.44547                  23393301.6774
        43.2504         33.0004
  23356224.7164    5479273.33449   4249770.88047                  23356224.7714
        47.7504         37.0004
  22776930.8334    2909326.05549   2259910.07747                  22776930.5954
        47.2504         36.7504
 02  7  8 17 16 15.0010000  0  9G29G 6G15G17G18G21G 3G23G26
  23760598.1924    3598973.09449   2795246.74047                  23760598.4314
        42.5004         32.5004
  22754469.4974    6001875.63349   4656547.39247                  22754471.1964
        48.0004         36.7504
  20568239.4354      47103.36249     37036.91948                  20568238.7864
        51.2504         44.5004
  20811811.5214    1023078.36049    793863.32248                  20811811.0834
        51.0004         43.7504
  20561319.0834    -783197.24249   -605769.25748                  20561317.1494
        50.5004         44.0004
  22259844.2554   -3282398.08649  -2547096.80248                  22259845.0604
        49.7504         42.0004
  23386700.4664   -1357386.70149  -1046642.90047                  23386700.8884
        44.0004         32.5004
  23365759.2554    5529376.17749   4288812.03447                  23365759.0524
        47.5004         37.2504
  22783819.6064    2945527.63649   2288119.07747                  22783819.8134
        47.5004         37.0004
 02  7  8 17 16 30.0010000  0  9G29G 6G15G17G18G21G 3G23G26
  23768166.0134    3638744.89249   2826237.73747                  23768166.7044
        43.5004         33.0004
  22765298.2554    6058781.61849   4700889.66547                  22765300.4314
        47.5004         37.5004
  20569683.5914      54692.70949     42950.70948                  20569682.9744
        50.7504         44.5004
  20814681.6304    1038160.32349    805615.50348                  20814681.2594
        50.5004         43.7504
  20561994.2634    -779648.07849   -603003.66348                  20561992.6104
        50.0004         43.5004
  22256150.0754   -3301811.55749  -2562224.16048                  22256150.5674
        49.2504         42.2504
  23380118.9664   -1391971.73049  -1073592.27347                  23380119.7904
        43.7504         32.2504
  23375302.9974    5579532.98049   4327895.23747                  23375304.0404
        47.7504         36.2504
  22790741.4274    2981902.46349   2316463.09847                  22790741.9314
        47.2504         36.2504
 02  7  8 17 16 45.0010000  0  9G29G 6G15G17G18G21G 3G23G26
  23775761.9584    3678660.18149   2857340.53847                  23775762.2674
        43.0004         32.2504
  22776147.0834    6115791.67449   4745313.02647                  22776149.2314
        47.7504         38.0004
  20571147.7944      62386.74249     48946.05048                  20571146.5244
        50.7504         44.2504
  20817570.0054    1053339.28149    817443.26448                  20817569.5484
        50.5004         43.5004
  20562696.9744    -775954.57249   -600125.60648                  20562695.7284
        50.2504         43.7504
  22252475.8334   -3321118.46249  -2577268.49348                  22252476.8294
        49.0004         41.5004
  23373557.4034   -1426452.18349  -1100460.13747                  23373557.7744
        44.2504         33.0004
  23384859.1854    5629747.56649   4367023.47447                  23384858.9934
        47.7504         36.0004
  22797696.9584    3018454.31049   2344945.04147                  22797697.4314
        47.5004         37.0004
 02  7  8 17 17  0.0010000  0  9G29G 6G15G17G18G21G 3G23G26
  23783383.4744    3718710.50649   2888548.56047                  23783383.6774
        43.2504         32.5004
  22787013.7714    6172897.14349   4789810.72247                  22787015.7784
        47.5004         37.0004
  20572630.3644      70177.07649     55016.44348                  20572629.6224
        50.5004         44.5004
  20820475.4274    1068606.88849    829340.09648                  20820475.0404
        50.5004         43.2504
  20563425.6694    -772125.24649   -597141.72448                  20563423.6574
        50.2504         43.5004
  22248820.6534   -3340326.78949  -2592236.00348                  22248821.4114
        49.5004         41.5004
  23367013.7714   -1460836.07549  -1127252.74147                  23367015.2714
        43.7504         33.5004
  23394423.7314    5680011.31949   4406190.02247                  23394424.2044
        47.7504         36.2504
  22804684.6854    3055174.56449   2373558.21947                  22804684.8884
        46.2504         36.7504
 02  7  8 17 17 15.0010000  0  9G29G 6G15G17G18G21G 3G23G26
  23791031.1854    3758899.54449   2919864.66947                  23791031.4424
        42.5004         31.7504
  22797899.5214    6230101.82749   4834385.73847                  22797901.9934
        47.5004         36.7504
  20574132.0134      78067.83249     61165.08848                  20574131.0674
        51.0004         44.5004
  20823398.3804    1083967.32949    841309.26748                  20823397.9114
        50.7504         43.7504
  20564181.0134    -768156.11549   -594048.88248                  20564179.5324
        50.5004         43.5004
  22245184.8884   -3359432.34249  -2607123.42848                  22245186.2784
        49.5004         42.0004
  23360490.3494   -1495119.07249  -1153966.75447                  23360491.4664
        44.7504         33.5004
  23403998.4814    5730328.02349   4445397.82747                  23403999.0054
        47.0004         36.0004
  22811704.7004    3092067.04349   2402305.59747                  22811705.2084
        46.5004         36.7504
 02  7  8 17 17 30.0010000  0  9G29G 6G15G17G18G21G 3G23G26
  23798705.5834    3799230.31449   2951291.23047                  23798706.3764
        43.2504         32.2504
  22808804.4194    6287408.77049   4879040.44347                  22808806.5794
        46.5004         36.5004
  20575653.0754      86062.26349     67394.51248                  20575652.2714
        51.0004         44.2504
  20826340.0284    1099423.91449    853353.36048                  20826339.5754
        50.7504         43.5004
  20564963.4894    -764043.96249   -590844.60548                  20564961.9354
        49.0004         43.5004
  22241569.4664   -3378431.96849  -2621928.29848                  22241570.5094
        49.5004         41.7504
  23353986.6774   -1529297.70849  -1180599.43747                  23353987.2354
        45.0004         34.0004
  23413584.0914    5780700.79649   4484649.31047                  23413584.8024
        47.0004         35.7504
  22818758.6064    3129134.83249   2431189.57247                  22818759.3924
        46.5004         36.5004
 02  7  8 17 17 45.0010000  0  9G29G 6G15G17G18G21G 3G23G26
  23806406.0834    3839697.49149   2982824.07547                  23806406.5914
        42.2504         31.5004
  22819728.3644    6344812.52249   4923770.56947                  22819730.2554
        47.0004         36.7504
  20577193.0054      94155.26049     73700.73448                  20577192.3764
        50.5004         44.0004
  20829298.4664    1114971.51749    865468.35948                  20829297.7674
        50.2504         43.7504
  20565772.4504    -759794.00149   -587532.94048                  20565770.5524
        50.0004         43.5004
  22237972.8964   -3397331.01249  -2636654.80748                  22237974.0874
        49.0004         41.7504
  23347501.7864   -1563376.84949  -1207154.59847                  23347502.1924
        45.7504         34.2504
  23423179.5444    5831124.22049   4523940.27847                  23423180.0564
        47.0004         36.2504
  22825844.6694    3166372.44949   2460205.87747                  22825845.2474
        46.5004         36.5004
 02  7  8 17 18  0.0010000  0  9G29G 6G15G17G18G21G 3G23G26
  23814132.3494    3880299.59849   3014462.07347                  23814133.2124
        42.2504         31.0004
  22830670.1384    6402311.70049   4968575.06347                  22830672.0874
        47.5004         36.7504
  20578751.5524     102345.70349     80082.90548                  20578750.8104
        50.2504         44.5004
  20832274.0284    1130609.10849    877653.49448                  20832273.7944
        50.7504         43.2504
  20566607.2474    -755407.57449   -584114.95748                  20566605.2204
        49.5004         43.5004
  22234395.7314   -3416130.39649  -2651303.66248                  22234396.3134
        49.7504         42.0004
  23341035.1064   -1597357.11049  -1233632.70647                  23341035.9194
        45.0004         33.5004
  23432784.2474    5881596.96049   4563269.67947                  23432784.6384
        46.7504         35.5004
  22832963.0214    3203778.47449   2489353.41947                  22832963.4034
        47.2504         37.0004
 02  7  8 17 18 15.0010000  0  9G29G 6G15G17G18G21G 3G23G26
  23821885.0834    3921040.95549   3046208.57747                  23821886.2164
        42.5004         32.0004
  22841631.1614    6459910.56649   5013457.23647                  22841632.7594
        47.5004         36.5004
  20580329.7944     110638.19149     86544.58948                  20580329.1304
        50.2504         44.5004
  20835268.3414    1146341.19949    889912.26548                  20835267.3374
        51.0004         44.0004
  20567468.7314    -750880.24949   -580587.15948                  20567466.5874
        49.7504         44.0004
  22230838.2864   -3434825.74549  -2665871.44848                  22230838.6694
        49.5004         42.0004
  23334588.7714   -1631233.72849  -1260030.04747                  23334589.6104
        45.0004         33.7504
  23442399.2314    5932123.32949   4602640.84747                  23442399.4624
        47.0004         35.7504
  22840114.0284    3241357.22649   2518635.55347                  22840114.6464
        47.5004         37.0004
 02  7  8 17 18 30.0010000  0  9G29G 6G15G17G18G21G 3G23G26
  23829664.8494    3961921.71049   3078063.69747                  23829665.5444
        43.0004         31.2504
  22852610.8564    6517609.27749   5058417.20647                  22852612.9784
        47.0004         36.5004
  20581927.0674     119033.25849     93086.19948                  20581926.8534
        51.0004         43.7504
  20838279.6064    1162168.20749    902244.98648                  20838279.2744
        50.5004         44.0004
  20568357.1304    -746211.58749   -576949.23548                  20568355.5134
        49.7504         43.7504
  22227300.2634   -3453416.59249  -2680357.80048                  22227301.0564
        48.5004         42.0004
  23328162.2714   -1665005.99849  -1286346.08947                  23328162.9584
        44.2504         33.0004
  23452024.3414    5982703.56349   4642054.00247                  23452024.6924
        46.5004         36.0004
  22847297.9354    3279108.87849   2548052.40847                  22847298.3174
        47.5004         36.7504
 02  7  8 17 18 45.0010000  0  9G29G 6G15G17G18G21G 3G23G26
  23837470.4114    4002939.86349   3110025.85447                  23837471.0874
        43.0004         32.5004
  22863608.8024    6575405.69049   5103453.31747                  22863611.2514
        47.2504         36.0004
  20583543.7474     127529.12649     99706.35248                  20583543.1654
        50.5004         44.2504
  20841309.3964    1178088.49949    914650.40348                  20841308.8294
        50.7504         43.5004
  20569271.9274    -741403.54549   -573202.70848                  20569270.7204
        49.5004         44.0004
  22223782.2394   -3471904.53549  -2694763.97648                  22223783.0794
        50.2504         41.7504
  23321754.6384   -1698675.50249  -1312582.03347                  23321755.8414
        44.5004         33.5004
  23461658.9664    6033335.61649   4681507.51947                  23461659.3964
        46.2504         36.2504
  22854514.4354    3317031.31449   2577602.32247                  22854515.1854
        46.7504         36.2504
 02  7  8 17 19  0.0010000  0  9G29G 6G15G17G18G21G 3G23G26
  23845302.6694    4044097.77749   3142096.95347                  23845302.5834
        43.5004         32.0004
  22874626.4974    6633302.35849   5148567.52147                  22874628.3684
        47.7504         35.5004
  20585180.0994     136128.72649    106407.33448                  20585179.4354
        50.7504         44.5004
  20844357.1304    1194104.92849    927130.73948                  20844356.9744
        51.0004         43.5004
  20570213.8024    -736453.48049   -569345.51748                  20570212.4934
        49.5004         44.0004
  22220283.9814   -3490286.85449  -2709087.83948                  22220285.1344
        49.5004         41.7504
  23315368.1854   -1732239.11349  -1338735.48647                  23315368.6534
        44.5004         34.2504
  23471304.5284    6084022.05349   4721003.42847                  23471305.0014
        45.7504         36.0004
  22861763.7784    3355127.01249   2607287.28747                  22861764.0874
        45.7504         36.0004
 02  7  8 17 19 15.0010000  0  9G29G 6G15G17G18G21G 3G23G26
  23853160.5674    4085393.54449   3174275.46947                  23853161.4034
        42.5004         32.0004
  22885662.0134    6691297.25649   5193758.30247                  22885664.8964
        47.7504         35.7504
  20586836.1144     144830.22849    113187.73448                  20586835.6494
        49.5004         44.0004
  20847422.7004    1210215.67749    939684.57448                  20847422.1104
        50.7504         43.7504
  20571182.4504    -731363.21749   -565379.06048                  20571180.6884
        49.7504         44.0004
  22216805.7944   -3508565.20249  -2723330.67848                  22216806.8254
        49.0004         41.5004
  23309000.7004   -1765698.35049  -1364807.61147                  23309001.2164
        45.0004         34.0004
  23480959.6304    6134760.91049   4760540.18747                  23480959.7594
        45.0004         35.5004
  22869045.5214    3393394.11449   2637105.80147                  22869045.7394
        44.0004         36.2504
 02  7  8 17 19 30.0010000  0  9G29G 6G15G17G18G21G 3G23G26
  23861044.0754    4126819.89149   3206555.71347                  23861044.5404
        42.5004         31.7504
  22896716.0214    6749383.06749   5239019.91047                  22896717.8924
        47.0004         36.5004
  20588510.0834     153626.62549    120042.06548                  20588509.4894
        49.2504         44.0004
  20850505.6534    1226413.87749    952306.54348                  20850504.5524
        50.7504         43.5004
  20572175.9894    -726139.89049   -561308.93148                  20572175.0094
        49.2504         44.0004
  22213346.0604   -3526746.75049  -2737498.08648                  22213346.8214
        49.5004         42.5004
  23302652.7554   -1799059.90049  -1390803.60747                  23302652.9894
        46.0004         34.0004
  23490623.3964    6185544.96749   4800112.16047                  23490623.4074
        45.2504         35.5004
  22876358.7244    3431825.12249   2667052.03447                  22876359.4154
        43.5004         35.7504
 02  7  8 17 19 45.0010000  0  9G29G 6G15G17G18G21G 3G23G26
  23868952.2474    4168379.49649   3238939.81447                  23868953.0874
        43.5004         31.7504
  22907787.2244    6807562.47849   5284354.45247                  22907789.2284
        47.5004         36.0004
  20590202.5214     162520.91049    126972.67348                  20590201.7514
        50.0004         44.0004
  20853604.8884    1242702.43549    964998.92148                  20853604.4034
        51.0004         43.7504
  20573196.2634    -720780.62449   -557132.88548                  20573194.8534
        48.5004         44.0004
  22209905.2394   -3544828.31849  -2751587.60548                  22209905.9114
        49.7504         42.7504
  23296323.2004   -1832320.36849  -1416720.84147                  23296323.5604
        45.5004         34.0004
  23500296.4354    6236376.90349   4839721.43047                  23500296.8684
        44.5004         35.5004
  22883703.6144    3470422.84149   2697128.15947                  22883704.3414
        44.0004         35.5004
 02  7  8 17 20  0.0010000  0  9G29G 6G15G17G18G21G 3G23G26
  23876887.2554    4210076.46449   3271430.93247                  23876887.8764
        44.5004         32.0004
  22918876.6064    6865839.66649   5329765.18547                  22918878.9934
        47.7504         37.0004
  20591914.5444     171517.64649    133983.11648                  20591914.1854
        50.0004         44.0004
  20856722.3414    1259085.82649    977765.20948                  20856721.7474
        51.5004         43.5004
  20574243.0054    -715281.19149   -552847.59848                  20574241.2284
        48.5004         43.5004
  22206484.1614   -3562805.71349  -2765595.94848                  22206484.7244
        49.2504         42.5004
  23290014.1224   -1865475.19949  -1442555.75747                  23290014.7204
        45.7504         34.0004
  23509979.5214    6287260.95349   4879371.32747                  23509979.4544
        45.0004         35.2504
  22891081.4114    3509191.33549   2727337.35847                  22891081.3844
        45.2504         35.7504
 02  7  8 17 20 15.0010000  0  9G29G 6G15G17G18G21G 3G23G26
  23884847.2164    4251906.18149   3304025.51347                  23884847.9784
        43.2504         32.2504
  22929984.6144    6924209.94849   5375248.45447                  22929986.8254
        47.0004         35.5004
  20593645.3104     180612.40249    141069.93148                  20593644.5174
        50.2504         44.5004
  20859857.2944    1275559.73449    990602.01248                  20859857.0604
        50.7504         44.0004
  20575315.5284    -709645.95049   -548456.51448                  20575313.6694
        49.0004         43.5004
  22203081.8334   -3580683.36949  -2779526.58048                  22203083.3294
        49.7504         42.2504
  23283724.4814   -1898528.39949  -1468311.49247                  23283725.0634
        45.7504         33.5004
  23519671.4194    6338192.53349   4919058.25947                  23519672.2044
        45.2504         35.5004
  22898490.1144    3548126.01749   2757676.06247                  22898490.2314
        46.2504         36.0004
 02  7  8 17 20 30.0010000  0  9G29G 6G15G17G18G21G 3G23G26
  23892832.9584    4293871.09949   3336725.42847                  23892832.9624
        44.5004         32.5004
  22941110.6614    6982675.80149   5420806.20147                  22941112.2904
        47.7504         35.5004
  20595395.2944     189808.11149    148235.41548                  20595394.7394
        51.5004         44.2504
  20863009.7944    1292126.97949   1003511.53448                  20863009.8844
        51.5004         43.7504
  20576413.7394    -703872.35949   -543957.61848                  20576411.9464
        49.2504         43.5004
  22199699.2634   -3598458.53849  -2793377.34848                  22199700.3684
        49.0004         41.7504
  23277454.0914   -1931477.01249  -1493985.70247                  23277454.6534
        45.2504         33.7504
  23529373.2944    6389174.08249   4958784.11147                  23529373.7554
        45.0004         35.7504
  22905931.3334    3587229.32549   2788146.15647                  22905932.1884
        46.5004         35.5004
 02  7  8 17 20 45.0010000  0  9G29G 6G15G17G18G21G 3G23G26
  23900843.9424    4335968.63549   3369528.66947                  23900844.3134
        45.0004         32.0004
  22952253.5914    7041234.54349   5466436.31947                  22952255.6344
        47.7504         36.0004
  20597164.0284     199102.29849    155477.65048                  20597163.0214
        50.5004         44.2504
  20866180.0284    1308785.10349   1016491.90248                  20866179.4814
        51.0004         43.7504
  20577538.6064    -697962.93249   -539352.85248                  20577536.8964
        49.5004         43.5004
  22196336.3884   -3616133.56049  -2807150.07748                  22196337.0754
        49.5004         42.0004
  23271203.5994   -1964323.04349  -1519580.02747                  23271204.7354
        44.2504         34.5004
  23539083.5134    6440203.04649   4998546.91647                  23539084.0714
        45.0004         35.7504
  22913403.5754    3626498.52849   2818745.52747                  22913404.9314
        44.0004         35.7504
 02  7  8 17 21  0.0010000  0  9G29G 6G15G17G18G21G 3G23G26
  23908880.4274    4378202.94849   3402438.51547                  23908881.2944
        44.0004         31.5004
  22963415.5444    7099890.33449   5512142.07847                  22963417.9354
        46.0004         35.5004
  20598951.9894     208499.56649    162800.19248                  20598951.0794
        50.0004         44.2504
  20869368.2244    1325538.77749   1029546.71248                  20869367.6694
        50.0004         44.2504
  20578689.3804    -691913.31449   -534638.86248                  20578687.9354
        48.5004         43.5004
  22192992.4974   -3633704.04649  -2820841.33148                  22192993.4234
        48.7504         42.0004
  23264973.7714   -1997061.76149  -1545090.67147                  23264974.4354
        45.2504         34.0004
  23548803.5134    6491283.67049   5038349.97547                  23548804.2244
        44.2504         36.0004
  22920908.8804    3665937.83849   2849477.44147                  22920909.5524
        44.0004         35.2504
 02  7  8 17 21 15.0010000  0  9G29G 6G15G17G18G21G 3G23G26
  23916942.4814    4420569.83449   3435451.64847                  23916943.4704
        43.5004         32.2504
  22974595.1924    7158639.11349   5557920.29147                  22974597.0524
        46.5004         36.0004
  20600759.3104     217996.02849    170200.03148                  20600758.4074
        51.2504         44.2504
  20872573.8884    1342384.15349   1042672.97148                  20872573.1734
        51.0004         43.7504
  20579866.4034    -685727.40149   -529818.68548                  20579865.1464
        48.5004         43.5004
  22189668.2714   -3651173.82749  -2834454.13548                  22189668.5524
        49.5004         42.0004
  23258763.9194   -2029696.73849  -1570520.50547                  23258764.5094
        44.7504         34.0004
  23558533.0604    6542411.85349   5078190.09447                  23558534.0094
        43.7504         35.7504
  22928445.6224    3705543.13649   2880338.70647                  22928445.7284
        46.5004         35.7504
 02  7  8 17 21 30.0010000  0  9G29G 6G15G17G18G21G 3G23G26
  23925030.2164    4463069.59249   3468568.32247                  23925031.0094
        43.5004         32.5004
  22985792.3104    7217481.20549   5603771.20347                  22985794.4194
        46.5004         36.2504
  20602585.2864     227592.43349    177677.74948                  20602584.3294
        51.0004         44.5004
  20875796.5444    1359321.78649   1055871.12348                  20875796.2824
        50.7504         44.0004
  20581069.5364    -679404.71449   -524891.91348                  20581068.3334
        48.7504         43.5004
  22186363.1694   -3668542.21749  -2847987.92748                  22186363.2554
        49.5004         42.0004
  23252573.2784   -2062227.05149  -1595868.77947                  23252574.0634
        43.5004         34.2504
  23568271.6384    6593588.12349   5118067.68947                  23568272.2554
        45.0004         35.5004
  22936014.2554    3745314.77049   2911329.57247                  22936014.1464
        46.7504         36.0004
 02  7  8 17 21 45.0010000  0  9G29G 6G15G17G18G21G 3G23G26
  23933143.2394    4505704.15549   3501790.04647                  23933143.7784
        43.7504         31.0004
  22997007.7164    7276418.44149   5649696.24947                  22997010.3604
        46.5004         36.0004
  20604431.0054     237290.85149    185234.95748                  20604430.1224
        51.5004         44.7504
  20879037.7864    1376354.00749   1069142.98248                  20879037.5794
        51.0004         44.2504
  20582299.4034    -672943.25849   -519857.01548                  20582297.6814
        50.2504         43.7504
  22183078.0674   -3685806.95749  -2861440.94048                  22183078.4744
        50.0004         42.2504
  23246402.9274   -2094650.35449  -1621133.67847                  23246404.2354
        45.7504         34.0004
  23578019.7634    6644814.29349   5157984.15447                  23578020.0634
        46.2504         36.0004
  22943614.2084    3785254.58849   2942451.50747                  22943614.6814
        46.2504         36.2504
 02  7  8 17 22  0.0010000  0  9G29G 6G15G17G18G21G 3G23G26
  23941280.8884    4548469.10549   3535113.36647                  23941281.9034
        44.5004         31.5004
  23008240.5994    7335446.27849   5695691.89547                  23008243.2354
        46.2504         36.2504
  20606295.2474     247087.02849    192868.33948                  20606294.5634
        50.0004         44.5004
  20882296.5214    1393476.51349   1082485.19448                  20882295.5634
        51.0004         44.0004
  20583554.6534    -666347.48649   -514717.44848                  20583552.8104
        49.2504         43.5004
  22179811.2314   -3702972.34749  -2874816.55148                  22179811.7984
        49.5004         42.2504
  23240253.0674   -2126970.52949  -1646318.20547                  23240253.2864
        45.5004         34.0004
  23587776.2784    6696085.88449   5197936.01947                  23587777.0954
        44.7504         35.2504
  22951245.8494    3825358.01249   2973700.92847                  22951246.2284
        45.0004         36.5004
 02  7  8 17 22 15.0010000  0  9G29G 6G15G17G18G21G 3G23G26
  23949443.8024    4591365.35049   3568538.98847                  23949445.2284
        43.0004         31.5004
  23019491.0524    7394565.73149   5741758.93847                  23019492.7904
        45.7504         36.0004
  20608177.9354     256982.34149    200578.97948                  20608177.4354
        50.2504         44.5004
  20885572.0214    1410690.58649   1095898.74548                  20885571.1344
        51.0004         44.0004
  20584835.6384    -659616.09449   -509472.20348                  20584833.6574
        49.2504         44.0004
  22176563.8724   -3720037.20649  -2888113.83048                  22176564.9624
        49.2504         41.5004
  23234122.9504   -2159185.98449  -1671421.14847                  23234122.7084
        46.0004         34.5004
  23597541.9664    6747403.94749   5237924.10547                  23597542.1384
        44.5004         35.0004
  22958908.7714    3865626.08249   3005078.61347                  22958909.1034
        44.5004         36.5004
 02  7  8 17 22 30.0010000  0  9G29G 6G15G17G18G21G 3G23G26
  23957632.8024    4634400.16449   3602072.59047                  23957634.3684
        43.0004         31.5004
  23030759.5284    7453784.01949   5787902.99147                  23030762.0014
        46.5004         36.0004
  20610081.4744     266984.33549    208372.74248                  20610080.5444
        51.2504         44.5004
  20888866.7164    1428003.84049   1109389.59448                  20888865.9784
        51.2504         44.0004
  20586144.0054    -652741.70449   -504115.54148                  20586142.1814
        49.7504         43.7504
  22173337.4274   -3736993.91249  -2901326.82348                  22173338.2634
        49.7504         41.5004
  23228013.6384   -2191288.93749  -1696436.42347                  23228014.2784
        45.0004         34.0004
  23607317.6304    6798775.79949   5277954.10147                  23607318.4704
        44.7504         35.5004
  22966604.2634    3906066.00049   3036590.23847                  22966604.0604
        46.0004         36.0004
 02  7  8 17 22 45.0010000  0  9G29G 6G15G17G18G21G 3G23G26
  23965849.3644    4677575.19249   3635715.44947                  23965849.6654
        43.5004         31.0004
  23042047.8564    7513102.85249   5834125.39547                  23042049.7864
        46.7504         35.2504
  20612004.9894     277095.05949    216251.23248                  20612004.1104
        51.0004         44.2504
  20892180.6534    1445418.29949   1122959.31048                  20892179.9234
        51.5004         44.2504
  20587479.6854    -645722.45049   -498645.99248                  20587477.7394
        49.5004         44.0004
  22170131.3804   -3753840.51949  -2914454.01848                  22170131.9704
        50.0004         42.0004
  23221926.7314   -2223277.08649  -1721362.23547                  23221927.3964
        45.7504         35.0004
  23617103.8174    6850203.17849   5318027.34347                  23617104.7634
        44.7504         35.0004
  22974332.3024    3946679.46049   3068237.07447                  22974332.9354
        46.5004         36.0004
 02  7  8 17 23  0.0010000  0  9G29G 6G15G17G18G21G 3G23G26
  23974089.9584    4720881.95849   3669460.94547                  23974090.6654
        42.5004         31.5004
  23053353.2314    7572513.72649   5880419.52147                  23053355.6304
        46.0004         35.7504
  20613948.6854     287306.35349    224208.07748                  20613947.6184
        51.5004         44.5004
  20895512.3024    1462925.92349   1136601.59648                  20895511.6104
        51.0004         44.2504
  20588841.2864    -638566.71849   -493070.09348                  20588839.7204
        50.7504         44.0004
  22166944.9034   -3770585.33249  -2927501.90348                  22166945.2904
        50.0004         42.0004
  23215859.8174   -2255158.29949  -1746204.73647                  23215859.9744
        45.0004         34.5004
  23626899.1924    6901677.68949   5358137.33647                  23626900.3844
        47.0004         35.0004
  22982092.1924    3987457.95949   3100012.51347                  22982092.9154
        46.2504         36.2504
 02  7  8 17 23 15.0010000  0  9G29G 6G15G17G18G21G 3G23G26
  23982354.8104    4764315.46149   3703305.22147                  23982355.8534
        43.2504         30.7504
  23064675.4664    7632011.56349   5926781.40647                  23064677.6964
        45.7504         35.5004
  20615909.8494     297613.46749    232239.59548                  20615909.3994
        50.5004         44.2504
  20898860.5834    1480521.76249   1150312.64648                  20898860.1344
        51.0004         44.2504
  20590227.9584    -631279.29849   -487391.59248                  20590226.6064
        50.5004         43.7504
  22163777.1304   -3787233.08549  -2940474.15648                  22163777.3684
        50.0004         42.2504
  23209812.0444   -2286937.10949  -1770967.42147                  23209812.9544
        45.5004         34.7504
  23636702.7634    6953194.32349   5398280.13347                  23636703.6694
        45.5004         34.5004
  22989882.8884    4028396.41149   3131912.59747                  22989883.1774
        44.0004         36.2504
 02  7  8 17 23 30.0010000  0  9G29G 6G15G17G18G21G 3G23G26
  23990644.2164    4807873.71149   3737246.68647                  23990645.0634
        43.0004         31.2504
  23076013.6064    7691594.37949   5973209.51347                  23076015.3994
        46.2504         35.7504
  20617888.9664     308014.69149    240344.45548                  20617888.7244
        50.5004         44.2504
  20902225.2164    1498204.22549   1164091.17648                  20902224.3414
        50.5004         43.7504
  20591639.2554    -623862.00649   -481611.87348                  20591637.8764
        50.0004         43.5004
  22160626.7394   -3803785.58649  -2953372.19748                  22160627.6264
        49.7504         42.5004
  23203784.3174   -2318614.98949  -1795651.47247                  23203784.7124
        45.5004         34.5004
  23646513.7394    7004751.17549   5438454.28747                  23646514.1144
        46.2504         34.5004
  22997702.8884    4069492.85249   3163935.77847                  22997703.7314
        45.5004         35.5004
 02  7  8 17 23 45.0010000  0  9G29G 6G15G17G18G21G 3G23G26
  23998957.6464    4851556.45249   3771285.14947                  23998957.8884
        43.7504         31.5004
  23087367.9034    7751261.95449   6019703.64247                  23087370.2164
        45.7504         35.5004
  20619886.6304     318510.10549    248522.69848                  20619885.8414
        50.7504         44.2504
  20905606.7244    1515973.50449   1177937.36148                  20905605.7394
        51.0004         44.2504
  20593075.3724    -616315.00249   -475731.09348                  20593073.9664
        49.7504         43.7504
  22157495.5364   -3820242.62449  -2966195.84348                  22157495.7204
        50.5004         42.7504
  23197775.5444   -2350191.57849  -1820256.58947                  23197775.9034
        46.0004         34.5004
  23656331.6924    7056347.98449   5478659.57047                  23656332.4974
        46.0004         34.5004
  23005553.7084    4110747.03249   3196081.88547                  23005554.0364
        45.0004         35.2504
 02  7  8 17 24  0.0010000  0  9G29G 6G15G17G18G21G 3G23G26
  24007293.3104    4895365.87549   3805422.36747                  24007294.6774
        42.0004         31.7504
  23098739.1304    7811016.58849   6066265.62247                  23098741.2594
        46.2504         35.0004
  20621902.0134     329102.37449    256776.42048                  20621900.8334
        51.5004         44.5004
  20909005.1694    1533832.13249   1191853.17648                  20909004.9074
        50.5004         44.5004
  20594536.6614    -608635.77349   -469747.27748                  20594535.2674
        50.5004         43.7504
  22154382.2864   -3836601.67649  -2978943.13148                  22154382.9424
        50.2504         42.7504
  23191786.0524   -2381664.10549  -1844780.63147                  23191787.2434
        45.0004         34.7504
  23666158.7394    7107987.17749   5518897.87647                  23666159.5994
        46.7504         34.2504
  23013433.7394    4152161.18149   3228352.66847                  23013435.1884
        45.7504         35.7504
 02  7  8 17 24 15.0010000  0  9G29G 6G15G17G18G21G 3G23G26
  24015653.4194    4939296.56049   3839654.03847                  24015653.9464
        42.0004         31.5004
  23110125.5364    7870852.65049   6112891.06947                  23110127.6614
        45.2504         35.2504
  20623934.9814     339786.19949    265101.47848                  20623934.1464
        51.2504         44.2504
  20912419.5444    1551774.86349   1205834.51848                  20912418.8724
        50.7504         44.0004
  20596022.2554    -600829.75349   -463664.65448                  20596020.6184
        50.5004         43.7504
  22151287.0444   -3852868.10749  -2991618.25148                  22151287.9894
        50.2504         42.2504
  23185815.9584   -2413037.54149  -1869227.44647                  23185816.7004
        46.0004         35.5004
  23675992.7244    7159663.22149   5559164.90447                  23675992.9894
        46.7504         34.7504
  23021344.4814    4193729.69149   3260743.69247                  23021344.8374
        46.5004         36.0004
 02  7  8 17 24 30.0010000  0  9G29G 6G15G17G18G21G 3G23G26
  24024036.8804    4983349.76849   3873981.16747                  24024037.6694
        42.0004         30.7504
  23121528.0914    7930771.54449   6159581.05547                  23121529.7824
        45.2504         35.0004
  20625985.9744     350563.22249    273499.15648                  20625984.9784
        51.2504         44.5004
  20915850.2004    1569803.42549   1219882.74348                  20915849.8214
        50.7504         43.5004
  20597532.0134    -592895.54249   -457482.15148                  20597530.4894
        50.5004         43.2504
  22148209.0994   -3869040.43349  -3004220.05048                  22148210.0754
        49.2504         43.0004
  23179865.1614   -2444309.91749  -1893595.52947                  23179865.7314
        44.5004         34.7504
  23685833.7004    7211377.54449   5599461.74147                  23685834.5484
        46.7504         35.0004
  23029284.6614    4235453.91349   3293256.05447                  23029285.0054
        47.0004         35.7504
 02  7  8 17 24 45.0010000  0  9G29G 6G15G17G18G21G 3G23G26
  24032442.9354    5027528.44549   3908406.09247                  24032445.0284
        41.2504         30.7504
  23132946.5054    7990776.19849   6206337.84747                  23132948.9234
        45.5004         35.7504
  20628054.8414     361436.80049    281972.06648                  20628054.6184
        51.0004         44.2504
  20919297.6224    1587921.05349   1234000.36148                  20919297.5794
        51.2504         43.7504
  20599067.0134    -584830.01649   -451197.33548                  20599065.2354
        51.0004         43.5004
  22145150.5834   -3885115.37449  -3016745.96148                  22145151.2904
        50.0004         42.7504
  23173933.9354   -2475477.78149  -1917882.16847                  23173934.6224
        45.7504         35.0004
  23695682.0754    7263133.15249   5639790.77347                  23695682.8174
        46.5004         34.7504
  23037254.4664    4277336.82749   3325892.07747                  23037255.1924
        45.5004         35.5004
 02  7  8 17 25  0.0010000  0  9G29G 6G15G17G18G21G 3G23G26
  24040873.9894    5071834.64049   3942930.36447                  24040875.2744
        41.5004         29.7504
  23144381.9814    8050868.57949   6253163.00847                  23144384.0714
        45.0004         36.0004
  20630142.8804     372409.25849    290522.04248                  20630142.1064
        50.7504         44.2504
  20922762.9034    1606129.99849   1248189.15048                  20922762.0954
        51.2504         44.0004
  20600626.7944    -576630.89249   -444808.38648                  20600625.2004
        50.2504         43.5004
  22142110.1144   -3901090.58949  -3029194.15548                  22142110.9744
        50.0004         42.0004
  23168023.1924   -2506538.47549  -1942085.27847                  23168024.4074
        46.2504         35.0004
  23705539.4664    7314932.10649   5680153.56547                  23705540.0014
        47.0004         34.5004
  23045255.0914    4319380.23749   3358653.16447                  23045255.8104
        46.5004         35.7504
 02  7  8 17 25 15.0010000  0  9G29G 6G15G17G18G21G 3G23G26
  24049329.0994    5116263.69849   3977550.39247                  24049330.1264
        41.0004         30.0004
  23155832.1224    8111044.13449   6300052.97647                  23155834.9934
        45.7504         36.2504
  20632248.9504     383476.37649    299145.76648                  20632248.1964
        51.5004         44.2504
  20926244.3494    1624426.12549   1262445.86648                  20926244.1144
        51.2504         43.7504
  20602212.0994    -568302.68149   -438318.87748                  20602210.4074
        50.5004         43.5004
  22139088.5754   -3916970.23049  -3041567.89048                  22139089.3684
        49.7504         42.2504
  23162132.9194   -2537495.85049  -1966207.88747                  23162133.2164
        46.5004         35.7504
  23715404.0674    7366770.00849   5720546.72147                  23715404.4114
        47.2504         34.7504
  23053285.3174    4361579.76349   3391535.90047                  23053286.3174
        46.2504         35.2504
 02  7  8 17 25 30.0010000  0  9G29G 6G15G17G18G21G 3G23G26
  24057807.5214    5160818.17749   4012268.13447                  24057808.4854
        40.7504         29.0004
  23167300.1614    8171305.41049   6347009.74247                  23167302.6614
        44.7504         35.0004
  20634373.6924     394641.00349    307845.47748                  20634372.7514
        51.7504         44.5004
  20929743.2084    1642812.25049   1276772.71948                  20929743.1494
        51.2504         44.0004
  20603821.7784    -559842.78749   -431726.73648                  20603820.3604
        50.5004         43.5004
  22136085.4504   -3932751.69449  -3053865.12248                  22136086.2554
        49.5004         42.0004
  23156262.1464   -2568346.92749  -1990247.67747                  23156262.6034
        46.5004         35.2504
  23725275.8804    7418649.47349   5760972.23347                  23725277.0364
        47.0004         33.7504
  23061346.2784    4403937.77349   3424542.14147                  23061346.5914
        46.7504         34.7504
 02  7  8 17 25 45.0010000  0  9G29G 6G15G17G18G21G 3G23G26
  24066309.6304    5205495.53949   4047081.64547                  24066310.5094
        42.0004         30.5004
  23178782.9194    8231649.81949   6394031.27547                  23178785.9584
        45.0004         34.5004
  20636516.2314     405900.91949    316619.43748                  20636515.5404
        52.2504         44.7504
  20933258.7004    1661286.13649   1291167.95148                  20933258.3644
        51.0004         44.0004
  20605456.4504    -551253.45949   -425033.74748                  20605454.6884
        50.5004         43.5004
  22133100.6924   -3948437.08849  -3066087.48748                  22133101.3924
        49.7504         42.0004
  23150410.7084   -2599093.79049  -2014206.25247                  23150411.5634
        46.2504         35.5004
  23735155.9504    7470567.90449   5801428.13347                  23735156.3104
        47.0004         34.7504
  23069435.8804    4446451.84149   3457669.98047                  23069436.4544
        47.0004         34.5004
 02  7  8 17 26  0.0010000  0  9G29G 6G15G17G18G21G 3G23G26
  24074834.3724    5250296.53949   4081991.46647                  24074836.1694
        41.5004         31.5004
  23190282.7004    8292078.06749   6441118.14847                  23190284.9034
        44.5004         34.5004
  20638677.3414     417257.20649    325468.49348                  20638676.9114
        52.2504         44.7504
  20936791.1694    1679848.81449   1305632.36048                  20936790.4074
        51.0004         44.2504
  20607115.7244    -542533.74349   -418239.16248                  20607113.9234
        50.7504         43.5004
  22130133.8804   -3964025.40749  -3078234.20448                  22130134.5484
        50.0004         42.2504
  23144580.3414   -2629734.92549  -2038082.45647                  23144580.7634
        46.5004         35.2504
  23745043.0754    7522526.17349   5841915.07847                  23745043.8724
        47.0004         34.7504
  23077555.7784    4489122.53349   3490919.85647                  23077556.9584
        46.7504         35.0004
 02  7  8 17 26 15.0010000  0  9G29G 6G15G17G18G21G 3G23G26
  24083383.4584    5295221.34149   4116997.76347                  24083384.4664
        40.7504         30.5004
  23201797.7474    8352590.22949   6488270.40847                  23201799.7744
        44.2504         35.2504
  20640856.5054     428710.27549    334392.95048                  20640856.3414
        51.2504         44.5004
  20940340.6064    1698500.88649   1320166.43948                  20940340.0754
        51.2504         44.5004
  20608799.7864    -533683.47349   -411342.84748                  20608798.0364
        50.0004         43.5004
  22127186.3334   -3979516.45949  -3090305.15048                  22127186.9584
        50.2504         42.5004
  23138769.2164   -2660269.73349  -2061875.79947                  23138769.7394
        46.5004         35.0004
  23754938.2244    7574524.42549   5882433.15247                  23754939.2204
        47.0004         34.5004
  23085705.3884    4531949.97349   3524291.88147                  23085706.3804
        46.7504         35.5004
 02  7  8 17 26 30.0010000  0  9G29G 6G15G17G18G21G 3G23G26
  24091956.6304    5340270.53149   4152101.02247                  24091957.3604
        40.0004         30.7504
  23213328.4194    8413187.10449   6535488.67247                  23213330.7004
        44.7504         35.0004
  20643054.7944     440261.07449    343393.57848                  20643054.1464
        51.7504         44.5004
  20943907.2164    1717243.21749   1334770.85448                  20943906.4934
        51.5004         44.2504
  20610509.1774    -524701.78349   -404344.12148                  20610507.2784
        50.0004         43.5004
  22124257.4584   -3994909.33849  -3102299.57948                  22124257.5564
        49.7504         42.0004
  23132979.2314   -2690696.98649  -2085585.33947                  23132979.3924
        46.2504         35.2504
  23764840.2244    7626563.43649   5922983.01947                  23764841.4384
        47.5004         34.7504
  23093885.2554    4574934.84949   3557786.57047                  23093886.0674
        46.2504         34.7504
 02  7  8 17 26 45.0010000  0  9G29G 6G15G17G18G21G 3G23G26
  24100551.6384    5385440.78949   4187298.59947                  24100552.7984
        41.2504         31.5004
  23224875.2394    8473865.29149   6582770.30547                  23224877.7784
        44.7504         35.0004
  20645271.0444     451906.57849    352467.99448                  20645270.4234
        52.0004         44.5004
  20947490.5524    1736072.90849   1349443.33648                  20947489.5994
        51.5004         44.5004
  20612242.5134    -515591.83549   -397245.46148                  20612241.0524
        50.2504         43.5004
  22121346.1224   -4010206.89749  -3114219.72748                  22121346.5244
        50.2504         43.0004
  23127208.9034   -2721019.41849  -2109213.19447                  23127209.6424
        46.0004         35.0004
  23774750.9664    7678639.91549   5963562.05447                  23774751.4034
        47.7504         34.5004
  23102094.6924    4618073.82449   3591401.34147                  23102095.9704
        46.0004         35.0004
 02  7  8 17 27  0.0010000  0  9G29G 6G15G17G18G21G 3G23G26
  24109170.3104    5430731.10849   4222589.75547                  24109171.1464
        41.0004         30.7504
  23236437.1534    8534623.77849   6630114.49847                  23236440.0604
        43.5004         35.0004
  20647504.8494     463646.17149    361615.73548                  20647504.2744
        51.0004         44.7504
  20951089.7004    1754989.12349   1364183.24648                  20951089.5634
        51.2504         44.2504
  20614000.3804    -506354.43049   -390047.48248                  20613998.7244
        49.5004         44.0004
  22118453.2554   -4025409.93049  -3126066.23348                  22118453.5014
        49.5004         42.7504
  23121458.7714   -2751237.53449  -2132759.76947                  23121459.3804
        46.7504         35.7504
  23784667.7474    7730752.95549   6004169.59547                  23784668.3024
        47.2504         34.0004
  23110332.4114    4661365.89749   3625135.41747                  23110333.2434
        46.5004         34.2504
 02  7  8 17 27 15.0010000  0  9G29G 6G15G17G18G21G 3G23G26
  24117812.3334    5476143.37849   4257975.89447                  24117813.7354
        40.7504         30.5004
  23248015.1144    8595464.43949   6677522.71247                  23248018.0484
        44.2504         35.2504
  20649757.2004     475482.07149    370838.50148                  20649755.7904
        52.0004         44.2504
  20954706.2944    1773994.29049   1378992.46448                  20954706.0324
        51.0004         44.5004
  20615782.7864    -496987.62649   -382748.67048                  20615781.1034
        49.5004         43.7504
  22115578.3804   -4040516.24049  -3137837.36548                  22115578.3994
        50.0004         42.7504
  23115728.6144   -2781348.77249  -2156223.06447                  23115728.6884
        46.2504         35.5004
  23794591.4974    7782904.53549   6044807.16847                  23794592.4784
        47.0004         33.5004
  23118600.4034    4704812.83349   3658990.17547                  23118601.3644
        46.2504         34.7504
 02  7  8 17 27 30.0010000  0  9G29G 6G15G17G18G21G 3G23G26
  24126477.1854    5521679.57149   4293458.61547                  24126478.4234
        40.7504         31.5004
  23259608.4194    8656389.28149   6724996.53847                  23259611.3494
        44.0004         35.0004
  20652028.4354     487416.57949    380138.13048                  20652027.9354
        51.5004         44.5004
  20958340.3564    1793090.46549   1393872.60348                  20958340.1184
        51.7504         44.2504
  20617590.0284    -487489.32349   -375347.38448                  20617588.4784
        49.7504         43.7504
  22112722.7864   -4055523.75749  -3149531.51848                  22112722.9504
        49.5004         42.5004
  23110019.6064   -2811350.66549  -2179601.15447                  23110019.8374
        46.0004         34.7504
  23804523.6464    7835096.65149   6085476.33047                  23804523.7674
        46.5004         33.2504
  23126898.0054    4748416.61749   3692967.12847                  23126898.4424
        46.0004         35.0004
 02  7  8 17 27 45.0010000  0  9G29G 6G15G17G18G21G 3G23G26
  24135165.3644    5567337.28149   4329036.03047                  24135166.5244
        41.2504         30.0004
  23271217.9974    8717395.90249   6772534.07947                  23271220.6814
        44.0004         34.7504
  20654317.8494     499447.61149    389512.94948                  20654317.0404
        51.5004         44.7504
  20961991.0524    1812275.84649   1408822.25148                  20961991.0754
        51.2504         44.2504
  20619422.3644    -477861.60749   -367845.27248                  20619420.9034
        50.2504         43.7504
  22109885.1694   -4070434.48749  -3161150.25848                  22109885.6494
        49.5004         42.5004
  23104330.5674   -2841244.95849  -2202895.39347                  23104330.8994
        46.0004         35.0004
  23814463.1534    7887327.09449   6126175.35447                  23814463.3724
        46.7504         34.0004
  23135225.1064    4792174.92349   3727064.50947                  23135225.2244
        46.7504         35.7504
 02  7  8 17 28  0.0010000  0  9G29G 6G15G17G18G21G 3G23G26
  24143876.6694    5613113.91349   4364706.10647                  24143877.7394
        41.2504         30.5004
  23282842.4274    8778481.73249   6820133.33847                  23282844.9074
        43.7504         34.5004
  20656624.8804     511572.87849    398961.21348                  20656624.2744
        51.7504         44.7504
  20965658.3334    1831548.01449   1423839.51648                  20965657.8924
        51.2504         43.7504
  20621278.8174    -468107.02649   -360244.28648                  20621277.0714
        50.0004         43.2504
  22107065.6224   -4085250.93349  -3172695.51548                  22107065.8214
        49.2504         42.7504
  23098662.1304   -2871033.74949  -2226107.41047                  23098662.8924
        45.5004         34.7504
  23824408.4274    7939593.25349   6166902.19147                  23824409.6304
        46.5004         34.0004
  23143580.5364    4836085.00149   3761280.13047                  23143581.2594
        46.5004         35.0004
 02  7  8 17 28 15.0010000  0  9G29G 6G15G17G18G21G 3G23G26
  24152610.4354    5659009.10449   4400468.57347                  24152611.2744
        42.0004         31.7504
  23294481.9974    8839646.17949   6867793.85847                  23294484.1654
        44.0004         34.0004
  20658950.2314     523792.24149    408482.79448                  20658949.8104
        51.5004         45.0004
  20969342.2314    1850906.86349   1438924.33348                  20969342.0914
        51.5004         44.0004
  20623159.1464    -458225.93249   -352544.74048                  20623157.3724
        50.2504         43.7504
  22104263.9274   -4099973.14049  -3184167.34848                  22104264.7514
        49.5004         42.0004
  23093013.6064   -2900716.90249  -2249237.13547                  23093013.7124
        46.0004         35.2504
  23834361.6464    7991894.76049   6207656.57347                  23834362.4504
        46.5004         34.5004
  23151965.6144    4880146.33049   3795613.64447                  23151966.2044
        46.5004         36.0004
 02  7  8 17 28 30.0010000  0  9G29G 6G15G17G18G21G 3G23G26
  24161366.4664    5705026.53349   4436326.29047                  24161368.1224
        41.7504         31.5004
  23306136.6694    8900893.21049   6915518.72947                  23306139.6424
        43.7504         33.7504
  20661294.0214     536109.98449    418081.04148                  20661293.5914
        51.5004         44.5004
  20973043.6464    1870356.58149   1454079.96148                  20973042.8134
        51.5004         44.5004
  20625064.1304    -448214.24249   -344743.40648                  20625061.8724
        50.0004         43.2504
  22101481.1924   -4114596.80249  -3195562.38748                  22101481.8994
        50.0004         42.2504
  23087385.8804   -2930289.91049  -2272281.01747                  23087386.4934
        46.0004         35.5004
  23844321.6694    8044235.51849   6248441.55447                  23844322.7594
        47.2504         34.7504
  23160379.1694    4924362.80049   3830068.02547                  23160380.0914
        46.2504         36.0004
 02  7  8 17 28 45.0010000  0  9G29G 6G15G17G18G21G 3G23G26
  24170146.1534    5751159.57049   4472274.08747                  24170147.3964
        42.5004         31.7504
  23317806.4424    8962216.10949   6963302.73847                  23317808.6574
        44.2504         34.0004
  20663655.7554     548519.60449    427750.87448                  20663655.1884
        50.5004         44.5004
  20976760.5914    1889890.84749   1469301.44448                  20976760.3064
        51.5004         44.0004
  20626992.9424    -438078.48049   -336845.40848                  20626990.4234
        49.0004         43.2504
  22098716.2004   -4129128.42549  -3206885.71448                  22098716.5484
        50.0004         42.7504
  23081778.1144   -2959758.85749  -2295243.81047                  23081778.7244
        44.7504         34.7504
  23854287.6224    8096608.99449   6289252.01347                  23854288.4744
        47.2504         33.5004
  23168822.3334    4968727.70749   3864638.07747                  23168822.5524
        45.7504         34.7504
 02  7  8 17 29  0.0010000  0  9G29G 6G15G17G18G21G 3G23G26
  24178947.5284    5797413.04149   4508315.71947                  24178948.9584
        42.0004         31.5004
  23329490.8724    9023619.69249   7011149.59347                  23329493.6654
        43.5004         34.2504
  20666035.8494     561026.36149    437496.39048                  20666035.0054
        51.0004         44.7504
  20980495.3644    1909514.81449   1484592.85348                  20980495.0244
        50.0004         44.0004
  20628946.1464    -427813.78849   -328846.94748                  20628944.2394
        51.0004         43.5004
  22095968.9114   -4143563.09349  -3218133.48948                  22095969.4784
        48.5004         42.5004
  23076190.8254   -2989118.45949  -2318121.41847                  23076191.6264
        45.0004         35.7504
  23864261.4744    8149020.11649   6330091.83547                  23864261.8564
        46.5004         33.5004
  23177293.6534    5013245.92049   3899327.57047                  23177294.3024
        44.7504         35.0004
 02  7  8 17 29 15.0010000  0  9G29G 6G15G17G18G21G 3G23G26
  24187771.4424    5843782.18649   4544447.51247                  24187772.9544
        41.5004         30.5004
  23341189.9274    9085099.15749   7059055.57847                  23341192.8334
        44.0004         33.5004
  20668433.3724     573625.83749    447314.16048                  20668432.4354
        51.7504         44.7504
  20984245.6614    1929223.95649   1499950.62248                  20984245.2434
        50.5004         44.2504
  20630922.8964    -417424.68749   -320751.53848                  20630921.4314
        51.0004         43.5004
  22093239.9034   -4157905.30249  -3229309.22448                  22093240.6734
        49.7504         43.0004
  23070624.4664   -3018372.93649  -2340917.09547                  23070624.9034
        46.0004         36.0004
  23874241.1614    8201464.08649   6370957.22747                  23874241.5134
        46.7504         34.0004
  23185793.6534    5057912.49149   3934132.67347                  23185793.4974
        45.5004         35.5004
 02  7  8 17 29 30.0010000  0  9G29G 6G15G17G18G21G 3G23G26
  24196617.4194    5890268.74649   4580670.79147                  24196618.6034
        42.0004         30.0004
  23352904.4354    9146656.26649   7107022.06847                  23352907.1384
        43.5004         34.0004
  20670848.8884     586320.11249    457205.80548                  20670848.0874
        51.2504         45.0004
  20988012.8414    1949020.48749   1515376.48648                  20988012.5834
        50.2504         44.0004
  20632924.3644    -406909.25049   -312557.68548                  20632922.7084
        49.0004         43.7504
  22090528.7474   -4172152.82049  -3240411.17748                  22090529.4584
        49.2504         43.0004
  23065077.6854   -3047519.80549  -2363628.92747                  23065079.0014
        46.0004         36.0004
  23884227.7394    8253942.80549   6411849.70347                  23884227.6854
        47.0004         34.2504
  23194321.2554    5102729.17349   3969054.75647                  23194321.9114
        45.0004         35.5004
 02  7  8 17 29 45.0010000  0  9G29G 6G15G17G18G21G 3G23G26
  24205485.6534    5936870.88749   4616984.11847                  24205486.9114
        41.7504         30.0004
  23364631.8174    9208289.24249   7155047.67347                  23364635.3724
        43.5004         34.0004
  20673282.3724     599107.69349    467170.15948                  20673281.5714
        51.5004         44.7504
  20991796.4974    1968902.98049   1530869.33348                  20991796.0834
        50.5004         44.0004
  20634948.8174    -396269.05449   -304266.62248                  20634947.0914
        51.0004         43.7504
  22087835.6694   -4186307.05249  -3251440.41848                  22087836.3024
        49.2504         43.0004
  23059551.6854   -3076560.35449  -2386257.89447                  23059552.3884
        45.0004         35.7504
  23894220.3104    8306454.65549   6452767.99447                  23894220.8604
        46.5004         33.7504
  23202878.4194    5147694.19849   4004092.41047                  23202878.8414
        45.5004         36.0004
 02  7  8 17 30  0.0010000  0  9G29G 6G15G17G18G21G 3G23G26
  24214375.2714    5983586.73449   4653386.06547                  24214376.6264
        41.7504         30.2504
  23376374.8414    9269996.19249   7203130.92247                  23376377.5674
        42.5004         34.0004
  20675733.1224     611987.00749    477205.99148                  20675732.8334
        51.5004         44.5004
  20995595.8884    1988869.70649   1546427.81448                  20995595.4234
        51.5004         44.5004
  20636997.0754    -385505.93649   -295879.76348                  20636995.7204
        50.5004         43.7504
  22085159.2944   -4200369.77349  -3262398.36648                  22085159.4154
        48.7504         42.7504
  23054045.2244   -3105496.01449  -2408805.15347                  23054045.8994
        45.0004         36.0004
  23904218.7714    8358997.70349   6493710.60247                  23904219.4744
        46.5004         34.0004
  23211462.5444    5192805.52049   4039244.06847                  23211463.4074
        44.2504         35.2504
